Time,TemperatureF,DewpointF,PressureIn,WindDirection,WindDirectionDegrees,WindSpeedMPH,WindSpeedGustMPH,Humidity,HourlyPrecipIn,Conditions,Clouds,dailyrainin,SoftwareType,DateUTC
2013-07-14 00:00:00,74.1,74.1,29.97,North,359,0.0,24.5,100,0.02,,SKC,0.02,VWS V14.01,2013-07-14 04:00:00,
2013-07-14 00:01:00,74.2,74.2,29.97,North,359,0.0,24.5,100,0.02,,SKC,0.02,VWS V14.01,2013-07-14 04:01:00,
2013-07-14 00:04:00,74.2,74.2,29.97,North,359,0.0,24.5,100,0.02,,SKC,0.02,VWS V14.01,2013-07-14 04:04:00,
2013-07-14 00:05:00,74.2,74.2,29.97,North,359,0.0,24.5,100,0.02,,SKC,0.02,VWS V14.01,2013-07-14 04:05:00,
2013-07-14 00:09:00,74.2,74.2,29.97,North,359,0.0,24.5,100,0.02,,SKC,0.02,VWS V14.01,2013-07-14 04:09:00,
2013-07-14 00:10:00,74.3,74.3,29.97,North,359,0.0,24.5,100,0.02,,SKC,0.02,VWS V14.01,2013-07-14 04:10:00,
2013-07-14 00:14:00,74.3,74.3,29.97,North,359,0.0,24.5,100,0.02,,SKC,0.02,VWS V14.01,2013-07-14 04:14:00,
2013-07-14 00:15:00,74.3,74.3,29.97,North,359,0.0,24.5,100,0.02,,SKC,0.02,VWS V14.01,2013-07-14 04:15:00,
2013-07-14 00:16:00,74.3,74.3,29.97,North,359,0.0,24.5,100,0.02,,SKC,0.02,VWS V14.01,2013-07-14 04:16:00,
2013-07-14 00:19:00,74.3,74.3,29.96,North,359,0.0,24.5,100,0.02,,SKC,0.02,VWS V14.01,2013-07-14 04:19:00,
2013-07-14 00:20:00,74.3,74.3,29.97,North,359,0.0,24.5,100,0.02,,SKC,0.02,VWS V14.01,2013-07-14 04:20:00,
2013-07-14 00:21:00,74.3,74.3,29.97,North,359,0.0,24.5,100,0.02,,SKC,0.02,VWS V14.01,2013-07-14 04:21:00,
2013-07-14 00:24:00,74.2,74.2,29.96,SE,141,1.0,24.5,100,0.02,,SKC,0.02,VWS V14.01,2013-07-14 04:24:00,
2013-07-14 00:25:00,74.2,74.2,29.96,SE,141,0.0,24.5,100,0.02,,SKC,0.02,VWS V14.01,2013-07-14 04:25:00,
2013-07-14 00:26:00,74.3,74.3,29.97,SE,141,0.0,24.5,100,0.02,,SKC,0.02,VWS V14.01,2013-07-14 04:26:00,
2013-07-14 00:29:00,75.1,75.1,29.97,South,186,6.2,24.5,100,0.02,,SKC,0.02,VWS V14.01,2013-07-14 04:29:00,
2013-07-14 00:30:00,75.2,75.2,29.97,South,181,2.5,24.5,100,0.02,,SKC,0.02,VWS V14.01,2013-07-14 04:30:00,
2013-07-14 00:31:00,75.6,75.6,29.97,South,174,7.1,24.5,100,0.02,,SKC,0.02,VWS V14.01,2013-07-14 04:31:00,
2013-07-14 00:35:00,76.6,76.6,29.96,South,186,4.3,24.5,100,0.02,,SKC,0.02,VWS V14.01,2013-07-14 04:35:00,
2013-07-14 00:36:00,76.8,76.8,29.96,South,172,6.1,24.5,100,0.02,,SKC,0.02,VWS V14.01,2013-07-14 04:36:00,
2013-07-14 00:40:00,77.5,77.5,29.96,South,177,1.3,24.5,100,0.02,,SKC,0.02,VWS V14.01,2013-07-14 04:40:00,
2013-07-14 00:41:00,77.7,77.7,29.96,SSW,212,3.0,24.5,100,0.02,,SKC,0.02,VWS V14.01,2013-07-14 04:41:00,
2013-07-14 00:45:00,78.0,78.0,29.96,South,181,6.3,24.5,100,0.02,,SKC,0.02,VWS V14.01,2013-07-14 04:45:00,
2013-07-14 00:46:00,78.1,78.1,29.96,SSE,166,5.0,24.5,100,0.02,,SKC,0.02,VWS V14.01,2013-07-14 04:46:00,
2013-07-14 00:47:00,78.2,78.2,29.96,South,174,0.8,24.5,100,0.02,,SKC,0.02,VWS V14.01,2013-07-14 04:47:00,
2013-07-14 00:50:00,78.2,78.2,29.95,SSW,193,0.0,24.5,100,0.02,,SKC,0.02,VWS V14.01,2013-07-14 04:50:00,
2013-07-14 00:51:00,78.3,78.3,29.95,SSW,193,0.0,24.5,100,0.02,,SKC,0.02,VWS V14.01,2013-07-14 04:51:00,
2013-07-14 00:52:00,78.3,78.3,29.95,South,177,0.0,24.5,100,0.02,,SKC,0.02,VWS V14.01,2013-07-14 04:52:00,
2013-07-14 00:55:00,78.3,78.3,29.96,SSE,148,3.7,24.5,100,0.02,,SKC,0.02,VWS V14.01,2013-07-14 04:55:00,
2013-07-14 00:56:00,78.3,78.3,29.96,South,169,3.4,24.5,100,0.02,,SKC,0.02,VWS V14.01,2013-07-14 04:56:00,
2013-07-14 00:57:00,78.3,78.3,29.96,SSE,153,3.1,24.5,100,0.02,,SKC,0.02,VWS V14.01,2013-07-14 04:57:00,
2013-07-14 01:00:00,78.3,78.3,29.95,SSE,158,7.9,7.9,100,0.00,,SKC,0.02,VWS V14.01,2013-07-14 05:00:00,
2013-07-14 01:01:00,78.3,78.3,29.95,SSE,156,3.2,8.8,100,0.00,,SKC,0.02,VWS V14.01,2013-07-14 05:01:00,
2013-07-14 01:02:00,78.3,78.3,29.95,SW,225,2.9,9.6,100,0.00,,SKC,0.02,VWS V14.01,2013-07-14 05:02:00,
2013-07-14 01:03:00,74.6,74.6,29.94,SE,143,0.0,0.0,100,0.00,,SKC,0.00,VWS V14.01,2013-07-14 05:03:00,
2013-07-14 01:04:00,74.6,74.6,29.94,SE,143,0.0,0.0,100,0.00,,SKC,0.00,VWS V14.01,2013-07-14 05:04:00,
2013-07-14 01:05:00,78.3,78.3,29.95,SSW,208,0.0,6.3,100,0.00,,SKC,0.02,VWS V14.01,2013-07-14 05:05:00,
2013-07-14 01:06:00,78.2,78.2,29.95,South,173,0.0,6.3,100,0.00,,SKC,0.02,VWS V14.01,2013-07-14 05:06:00,
2013-07-14 01:07:00,78.3,78.3,29.95,SSE,165,5.7,9.0,100,0.00,,SKC,0.02,VWS V14.01,2013-07-14 05:07:00,
2013-07-14 01:11:00,77.8,77.8,29.95,SE,143,0.0,0.0,100,0.00,,SKC,0.02,VWS V14.01,2013-07-14 05:11:00,
2013-07-14 01:12:00,77.8,77.8,29.95,SE,143,0.0,0.0,100,0.00,,SKC,0.02,VWS V14.01,2013-07-14 05:12:00,
2013-07-14 01:13:00,77.7,77.5,29.95,SE,143,0.0,0.0,100,0.00,,SKC,0.02,VWS V14.01,2013-07-14 05:13:00,
2013-07-14 01:16:00,77.1,77.1,29.95,SE,143,0.0,0.0,100,0.00,,SKC,0.02,VWS V14.01,2013-07-14 05:16:00,
2013-07-14 01:17:00,77.0,77.0,29.95,SE,143,0.0,0.0,100,0.00,,SKC,0.02,VWS V14.01,2013-07-14 05:17:00,
2013-07-14 01:18:00,76.9,76.9,29.95,SE,143,0.0,0.0,100,0.00,,SKC,0.02,VWS V14.01,2013-07-14 05:18:00,
2013-07-14 01:21:00,76.4,76.4,29.95,SE,143,0.0,0.0,100,0.00,,SKC,0.02,VWS V14.01,2013-07-14 05:21:00,
2013-07-14 01:22:00,76.3,76.3,29.95,SE,143,0.0,0.0,100,0.00,,SKC,0.02,VWS V14.01,2013-07-14 05:22:00,
2013-07-14 01:23:00,76.2,76.2,29.95,SE,143,0.0,0.0,100,0.00,,SKC,0.02,VWS V14.01,2013-07-14 05:23:00,
2013-07-14 01:26:00,76.0,76.0,29.95,SE,143,0.0,0.0,100,0.00,,SKC,0.02,VWS V14.01,2013-07-14 05:26:00,
2013-07-14 01:27:00,75.8,75.8,29.95,SE,143,0.0,0.0,100,0.00,,SKC,0.02,VWS V14.01,2013-07-14 05:27:00,
2013-07-14 01:28:00,75.8,75.8,29.94,SE,143,0.0,0.0,100,0.00,,SKC,0.02,VWS V14.01,2013-07-14 05:28:00,
2013-07-14 01:31:00,75.6,75.6,29.95,SE,143,0.0,0.0,100,0.00,,SKC,0.02,VWS V14.01,2013-07-14 05:31:00,
2013-07-14 01:32:00,75.5,75.5,29.95,SE,143,0.0,0.0,100,0.00,,SKC,0.02,VWS V14.01,2013-07-14 05:32:00,
2013-07-14 01:33:00,75.5,75.5,29.95,SE,143,0.0,0.0,100,0.00,,SKC,0.02,VWS V14.01,2013-07-14 05:33:00,
2013-07-14 01:36:00,75.3,75.3,29.95,SE,143,0.0,0.0,100,0.00,,SKC,0.02,VWS V14.01,2013-07-14 05:36:00,
2013-07-14 01:37:00,75.3,75.3,29.95,SE,143,0.0,0.0,100,0.00,,SKC,0.02,VWS V14.01,2013-07-14 05:37:00,
2013-07-14 01:38:00,75.2,75.2,29.95,SE,143,0.0,0.0,100,0.00,,SKC,0.02,VWS V14.01,2013-07-14 05:38:00,
2013-07-14 01:41:00,75.2,75.2,29.94,SE,143,0.0,0.0,100,0.00,,SKC,0.02,VWS V14.01,2013-07-14 05:41:00,
2013-07-14 01:42:00,75.1,75.1,29.94,SE,143,0.0,0.0,100,0.00,,SKC,0.02,VWS V14.01,2013-07-14 05:42:00,
2013-07-14 01:43:00,75.1,75.1,29.94,SE,143,0.0,0.0,100,0.00,,SKC,0.02,VWS V14.01,2013-07-14 05:43:00,
2013-07-14 01:46:00,75.0,75.0,29.94,SE,143,0.0,0.0,100,0.00,,SKC,0.02,VWS V14.01,2013-07-14 05:46:00,
2013-07-14 01:48:00,74.9,74.9,29.94,SE,143,0.0,0.0,100,0.00,,SKC,0.02,VWS V14.01,2013-07-14 05:48:00,
2013-07-14 01:49:00,74.9,74.9,29.94,SE,143,0.0,0.0,100,0.00,,SKC,0.02,VWS V14.01,2013-07-14 05:49:00,
2013-07-14 01:51:00,74.8,74.8,29.94,SE,143,0.0,0.0,100,0.00,,SKC,0.02,VWS V14.01,2013-07-14 05:51:00,
2013-07-14 01:53:00,74.8,74.8,29.94,SE,143,0.0,0.0,100,0.00,,SKC,0.02,VWS V14.01,2013-07-14 05:53:00,
2013-07-14 01:54:00,74.7,74.7,29.94,SE,143,0.0,0.0,100,0.00,,SKC,0.02,VWS V14.01,2013-07-14 05:54:00,
2013-07-14 01:58:00,74.6,74.6,29.94,SE,143,0.0,0.0,100,0.00,,SKC,0.00,VWS V14.01,2013-07-14 05:58:00,
2013-07-14 01:59:00,74.6,74.6,29.94,SE,143,0.0,0.0,100,0.00,,SKC,0.00,VWS V14.01,2013-07-14 05:59:00,
2013-07-14 02:00:00,74.5,74.5,29.94,SE,143,0.0,0.0,100,0.00,,SKC,0.00,VWS V14.01,2013-07-14 06:00:00,
2013-07-14 02:03:00,74.5,74.5,29.94,SE,143,0.0,0.0,100,0.00,,SKC,0.00,VWS V14.01,2013-07-14 06:03:00,
2013-07-14 02:04:00,74.4,74.4,29.94,SE,143,0.0,0.0,100,0.00,,SKC,0.00,VWS V14.01,2013-07-14 06:04:00,
2013-07-14 02:05:00,74.5,74.5,29.94,SE,143,0.0,0.0,100,0.00,,SKC,0.00,VWS V14.01,2013-07-14 06:05:00,
2013-07-14 02:08:00,74.4,74.4,29.93,SE,143,0.0,0.0,100,0.00,,SKC,0.00,VWS V14.01,2013-07-14 06:08:00,
2013-07-14 02:09:00,74.3,74.3,29.93,SE,143,0.0,0.0,100,0.00,,SKC,0.00,VWS V14.01,2013-07-14 06:09:00,
2013-07-14 02:10:00,74.3,74.3,29.93,SE,143,0.0,0.0,100,0.00,,SKC,0.00,VWS V14.01,2013-07-14 06:10:00,
2013-07-14 02:11:00,74.3,74.4,29.93,SE,143,0.0,0.0,100,0.00,,SKC,0.00,VWS V14.01,2013-07-14 06:11:00,
2013-07-14 02:14:00,74.3,74.3,29.93,SE,143,0.0,0.0,100,0.00,,SKC,0.00,VWS V14.01,2013-07-14 06:14:00,
2013-07-14 02:15:00,74.3,74.3,29.93,SE,143,0.0,0.0,100,0.00,,SKC,0.00,VWS V14.01,2013-07-14 06:15:00,
2013-07-14 02:16:00,74.2,74.2,29.93,SE,143,0.0,0.0,100,0.00,,SKC,0.00,VWS V14.01,2013-07-14 06:16:00,
2013-07-14 02:19:00,74.2,74.2,29.94,SE,143,0.0,0.0,100,0.00,,SKC,0.00,VWS V14.01,2013-07-14 06:19:00,
2013-07-14 02:20:00,74.2,74.1,29.94,SE,143,0.0,0.0,100,0.00,,SKC,0.00,VWS V14.01,2013-07-14 06:20:00,
2013-07-14 02:21:00,74.1,74.1,29.94,SE,143,0.0,0.0,100,0.00,,SKC,0.00,VWS V14.01,2013-07-14 06:21:00,
2013-07-14 02:24:00,74.0,74.0,29.94,SE,143,0.0,0.0,100,0.00,,SKC,0.00,VWS V14.01,2013-07-14 06:24:00,
2013-07-14 02:25:00,74.0,74.0,29.94,SE,143,0.0,0.0,100,0.00,,SKC,0.00,VWS V14.01,2013-07-14 06:25:00,
2013-07-14 02:26:00,73.9,73.9,29.94,SE,143,0.0,0.0,100,0.00,,SKC,0.00,VWS V14.01,2013-07-14 06:26:00,
2013-07-14 02:29:00,73.9,73.9,29.94,SE,143,0.0,0.0,100,0.00,,SKC,0.00,VWS V14.01,2013-07-14 06:29:00,
2013-07-14 02:30:00,73.9,73.9,29.94,SE,143,0.0,0.0,100,0.00,,SKC,0.00,VWS V14.01,2013-07-14 06:30:00,
2013-07-14 02:31:00,73.8,73.8,29.94,SE,143,0.0,0.0,100,0.00,,SKC,0.00,VWS V14.01,2013-07-14 06:31:00,
2013-07-14 02:34:00,73.8,73.8,29.95,SE,143,0.0,0.0,100,0.00,,SKC,0.00,VWS V14.01,2013-07-14 06:34:00,
2013-07-14 02:35:00,73.6,73.7,29.95,SE,143,0.0,0.0,100,0.00,,SKC,0.00,VWS V14.01,2013-07-14 06:35:00,
2013-07-14 02:36:00,73.7,73.7,29.95,SE,143,0.0,0.0,100,0.00,,SKC,0.00,VWS V14.01,2013-07-14 06:36:00,
2013-07-14 02:40:00,73.6,73.6,29.94,SE,143,0.0,0.0,100,0.00,,SKC,0.00,VWS V14.01,2013-07-14 06:40:00,
2013-07-14 02:41:00,73.5,73.5,29.94,SE,143,0.0,0.0,100,0.00,,SKC,0.00,VWS V14.01,2013-07-14 06:41:00,
2013-07-14 02:45:00,73.4,73.4,29.94,SE,143,0.0,0.0,100,0.00,,SKC,0.00,VWS V14.01,2013-07-14 06:45:00,
2013-07-14 02:46:00,73.5,73.5,29.94,SE,143,0.0,0.0,100,0.00,,SKC,0.00,VWS V14.01,2013-07-14 06:46:00,
2013-07-14 02:50:00,73.4,73.4,29.94,SE,143,0.0,0.0,100,0.00,,SKC,0.00,VWS V14.01,2013-07-14 06:50:00,
2013-07-14 02:51:00,73.4,73.4,29.94,SE,143,0.0,0.0,100,0.00,,SKC,0.00,VWS V14.01,2013-07-14 06:51:00,
2013-07-14 02:52:00,73.4,73.4,29.94,SE,143,0.0,0.0,100,0.00,,SKC,0.00,VWS V14.01,2013-07-14 06:52:00,
2013-07-14 02:55:00,73.4,73.4,29.94,SE,143,0.0,0.0,100,0.00,,SKC,0.00,VWS V14.01,2013-07-14 06:55:00,
2013-07-14 02:56:00,73.4,73.4,29.94,SE,143,0.0,0.0,100,0.00,,SKC,0.00,VWS V14.01,2013-07-14 06:56:00,
2013-07-14 02:57:00,73.4,73.4,29.94,SE,143,0.0,0.0,100,0.00,,SKC,0.00,VWS V14.01,2013-07-14 06:57:00,
2013-07-14 03:00:00,73.3,73.3,29.94,SE,143,0.0,0.0,100,0.00,,SKC,0.00,VWS V14.01,2013-07-14 07:00:00,
2013-07-14 03:01:00,73.4,73.4,29.94,SE,143,0.0,0.0,100,0.00,,SKC,0.00,VWS V14.01,2013-07-14 07:01:00,
2013-07-14 03:02:00,73.3,73.3,29.94,SE,143,0.0,0.0,100,0.00,,SKC,0.00,VWS V14.01,2013-07-14 07:02:00,
2013-07-14 03:05:00,73.4,73.4,29.94,SE,143,0.0,0.0,100,0.00,,SKC,0.00,VWS V14.01,2013-07-14 07:05:00,
2013-07-14 03:06:00,73.4,73.4,29.93,SE,143,0.0,0.0,100,0.00,,SKC,0.00,VWS V14.01,2013-07-14 07:06:00,
2013-07-14 03:07:00,73.4,73.4,29.93,SE,143,0.0,0.0,100,0.00,,SKC,0.00,VWS V14.01,2013-07-14 07:07:00,
2013-07-14 03:10:00,73.4,73.4,29.93,SE,143,0.0,0.0,100,0.00,,SKC,0.00,VWS V14.01,2013-07-14 07:10:00,
2013-07-14 03:11:00,73.4,73.4,29.93,SE,143,0.0,0.0,100,0.00,,SKC,0.00,VWS V14.01,2013-07-14 07:11:00,
2013-07-14 03:12:00,73.4,73.4,29.93,SE,143,0.0,0.0,100,0.00,,SKC,0.00,VWS V14.01,2013-07-14 07:12:00,
2013-07-14 03:16:00,73.3,73.3,29.93,SE,143,0.0,0.0,100,0.00,,SKC,0.00,VWS V14.01,2013-07-14 07:16:00,
2013-07-14 03:17:00,73.2,73.2,29.93,SE,143,0.0,0.0,100,0.00,,SKC,0.00,VWS V14.01,2013-07-14 07:17:00,
2013-07-14 03:18:00,73.3,73.3,29.93,SE,143,0.0,0.0,100,0.00,,SKC,0.00,VWS V14.01,2013-07-14 07:18:00,
2013-07-14 03:21:00,73.2,73.2,29.93,SE,143,0.0,0.0,100,0.00,,SKC,0.00,VWS V14.01,2013-07-14 07:21:00,
2013-07-14 03:22:00,73.2,73.2,29.93,SE,143,0.0,0.0,100,0.00,,SKC,0.00,VWS V14.01,2013-07-14 07:22:00,
2013-07-14 03:23:00,73.2,73.2,29.93,SE,143,0.0,0.0,100,0.00,,SKC,0.00,VWS V14.01,2013-07-14 07:23:00,
2013-07-14 03:26:00,73.1,73.1,29.93,SE,143,0.0,0.0,100,0.00,,SKC,0.00,VWS V14.01,2013-07-14 07:26:00,
2013-07-14 03:27:00,73.1,73.1,29.94,SE,143,0.0,0.0,100,0.00,,SKC,0.00,VWS V14.01,2013-07-14 07:27:00,
2013-07-14 03:28:00,73.1,73.1,29.93,SE,143,0.0,0.0,100,0.00,,SKC,0.00,VWS V14.01,2013-07-14 07:28:00,
2013-07-14 03:31:00,73.0,73.0,29.93,SE,143,0.0,0.0,100,0.00,,SKC,0.00,VWS V14.01,2013-07-14 07:31:00,
2013-07-14 03:32:00,73.1,73.1,29.93,SE,143,0.0,0.0,100,0.00,,SKC,0.00,VWS V14.01,2013-07-14 07:32:00,
2013-07-14 03:33:00,73.1,73.1,29.93,SE,143,0.0,0.0,100,0.00,,SKC,0.00,VWS V14.01,2013-07-14 07:33:00,
2013-07-14 03:36:00,73.0,73.0,29.93,SE,143,0.0,0.0,100,0.00,,SKC,0.00,VWS V14.01,2013-07-14 07:36:00,
2013-07-14 03:37:00,73.0,73.0,29.93,SE,143,0.0,0.0,100,0.00,,SKC,0.00,VWS V14.01,2013-07-14 07:37:00,
2013-07-14 03:38:00,73.0,73.0,29.93,SE,143,0.0,0.0,100,0.00,,SKC,0.00,VWS V14.01,2013-07-14 07:38:00,
2013-07-14 03:41:00,72.9,72.9,29.93,SE,143,0.0,0.0,100,0.00,,SKC,0.00,VWS V14.01,2013-07-14 07:41:00,
2013-07-14 03:42:00,73.0,73.0,29.93,SE,143,0.0,0.0,100,0.00,,SKC,0.00,VWS V14.01,2013-07-14 07:42:00,
2013-07-14 03:43:00,73.0,73.0,29.93,SE,143,0.0,0.0,100,0.00,,SKC,0.00,VWS V14.01,2013-07-14 07:43:00,
2013-07-14 03:46:00,72.9,72.9,29.93,SE,143,0.0,0.0,100,0.00,,SKC,0.00,VWS V14.01,2013-07-14 07:46:00,
2013-07-14 03:47:00,72.9,72.9,29.93,SE,143,0.0,0.0,100,0.00,,SKC,0.00,VWS V14.01,2013-07-14 07:47:00,
2013-07-14 03:48:00,72.9,72.9,29.93,SE,143,0.0,0.0,100,0.00,,SKC,0.00,VWS V14.01,2013-07-14 07:48:00,
2013-07-14 03:49:00,72.9,72.9,29.93,SE,143,0.0,0.0,100,0.00,,SKC,0.00,VWS V14.01,2013-07-14 07:49:00,
2013-07-14 03:51:00,72.9,72.9,29.93,SE,143,0.0,0.0,100,0.00,,SKC,0.00,VWS V14.01,2013-07-14 07:51:00,
2013-07-14 03:52:00,72.9,72.9,29.93,SE,143,0.0,0.0,100,0.00,,SKC,0.00,VWS V14.01,2013-07-14 07:52:00,
2013-07-14 03:53:00,72.9,72.9,29.93,SE,143,0.0,0.0,100,0.00,,SKC,0.00,VWS V14.01,2013-07-14 07:53:00,
2013-07-14 03:54:00,72.9,72.9,29.93,SE,143,0.0,0.0,100,0.00,,SKC,0.00,VWS V14.01,2013-07-14 07:54:00,
2013-07-14 03:57:00,72.9,72.9,29.93,SE,143,0.0,0.0,100,0.00,,SKC,0.00,VWS V14.01,2013-07-14 07:57:00,
2013-07-14 03:58:00,72.8,72.8,29.93,SE,143,0.0,0.0,100,0.00,,SKC,0.00,VWS V14.01,2013-07-14 07:58:00,
2013-07-14 03:59:00,72.8,72.8,29.93,SE,143,0.0,0.0,100,0.00,,SKC,0.00,VWS V14.01,2013-07-14 07:59:00,
2013-07-14 04:02:00,72.8,72.7,29.93,SE,143,0.0,0.0,100,0.00,,SKC,0.00,VWS V14.01,2013-07-14 08:02:00,
2013-07-14 04:03:00,72.8,72.8,29.93,SE,143,0.0,0.0,100,0.00,,SKC,0.00,VWS V14.01,2013-07-14 08:03:00,
2013-07-14 04:04:00,72.7,72.7,29.93,SE,143,0.0,0.0,100,0.00,,SKC,0.00,VWS V14.01,2013-07-14 08:04:00,
2013-07-14 04:07:00,72.7,72.7,29.93,SE,143,0.0,0.0,100,0.00,,SKC,0.00,VWS V14.01,2013-07-14 08:07:00,
2013-07-14 04:08:00,72.7,72.7,29.93,SE,143,0.0,0.0,100,0.00,,SKC,0.00,VWS V14.01,2013-07-14 08:08:00,
2013-07-14 04:09:00,72.7,72.7,29.93,SE,143,0.0,0.0,100,0.00,,SKC,0.00,VWS V14.01,2013-07-14 08:09:00,
2013-07-14 04:12:00,72.7,72.7,29.93,SE,143,0.0,0.0,100,0.00,,SKC,0.00,VWS V14.01,2013-07-14 08:12:00,
2013-07-14 04:13:00,72.6,72.6,29.93,SE,143,0.0,0.0,100,0.00,,SKC,0.00,VWS V14.01,2013-07-14 08:13:00,
2013-07-14 04:14:00,72.7,72.7,29.93,SE,143,0.0,0.0,100,0.00,,SKC,0.00,VWS V14.01,2013-07-14 08:14:00,
2013-07-14 04:18:00,72.6,72.6,29.93,SE,143,0.0,0.0,100,0.00,,SKC,0.00,VWS V14.01,2013-07-14 08:18:00,
2013-07-14 04:19:00,72.6,72.6,29.93,SE,143,0.0,0.0,100,0.00,,SKC,0.00,VWS V14.01,2013-07-14 08:19:00,
2013-07-14 04:23:00,72.5,72.5,29.93,SE,143,0.0,0.0,100,0.00,,SKC,0.00,VWS V14.01,2013-07-14 08:23:00,
2013-07-14 04:24:00,72.5,72.5,29.93,SE,143,0.0,0.0,100,0.00,,SKC,0.00,VWS V14.01,2013-07-14 08:24:00,
2013-07-14 04:25:00,72.5,72.5,29.93,SE,143,0.0,0.0,100,0.00,,SKC,0.00,VWS V14.01,2013-07-14 08:25:00,
2013-07-14 04:28:00,72.5,72.5,29.93,SE,143,0.0,0.0,100,0.00,,SKC,0.00,VWS V14.01,2013-07-14 08:28:00,
2013-07-14 04:29:00,72.4,72.4,29.93,SE,143,0.0,0.0,100,0.00,,SKC,0.00,VWS V14.01,2013-07-14 08:29:00,
2013-07-14 04:30:00,72.5,72.5,29.93,SE,143,0.0,0.0,100,0.00,,SKC,0.00,VWS V14.01,2013-07-14 08:30:00,
2013-07-14 04:33:00,72.4,72.5,29.93,SE,143,0.0,0.0,100,0.00,,SKC,0.00,VWS V14.01,2013-07-14 08:33:00,
2013-07-14 04:35:00,72.4,72.5,29.93,SE,143,0.0,0.0,100,0.00,,SKC,0.00,VWS V14.01,2013-07-14 08:35:00,
2013-07-14 04:38:00,72.5,72.5,29.93,SE,143,0.0,0.0,100,0.00,,SKC,0.00,VWS V14.01,2013-07-14 08:38:00,
2013-07-14 04:40:00,72.4,72.4,29.93,SE,143,0.0,0.0,100,0.00,,SKC,0.00,VWS V14.01,2013-07-14 08:40:00,
2013-07-14 04:43:00,72.4,72.4,29.94,SE,143,0.0,0.0,100,0.00,,SKC,0.00,VWS V14.01,2013-07-14 08:43:00,
2013-07-14 04:45:00,72.4,72.4,29.93,SE,143,0.0,0.0,100,0.00,,SKC,0.00,VWS V14.01,2013-07-14 08:45:00,
2013-07-14 04:48:00,72.4,72.4,29.93,SE,143,0.0,0.0,100,0.00,,SKC,0.00,VWS V14.01,2013-07-14 08:48:00,
2013-07-14 04:50:00,72.4,72.4,29.93,SE,143,0.0,0.0,100,0.00,,SKC,0.00,VWS V14.01,2013-07-14 08:50:00,
2013-07-14 04:53:00,72.4,72.4,29.93,SE,143,0.0,0.0,100,0.00,,SKC,0.00,VWS V14.01,2013-07-14 08:53:00,
2013-07-14 04:54:00,72.4,72.3,29.93,SE,143,0.0,0.0,100,0.00,,SKC,0.00,VWS V14.01,2013-07-14 08:54:00,
2013-07-14 04:55:00,72.4,72.4,29.93,SE,143,0.0,0.0,100,0.00,,SKC,0.00,VWS V14.01,2013-07-14 08:55:00,
2013-07-14 04:58:00,72.3,72.3,29.93,SE,143,0.0,0.0,100,0.00,,SKC,0.00,VWS V14.01,2013-07-14 08:58:00,
2013-07-14 04:59:00,72.3,72.3,29.93,SE,143,0.0,0.0,100,0.00,,SKC,0.00,VWS V14.01,2013-07-14 08:59:00,
2013-07-14 05:00:00,72.4,72.4,29.93,SE,143,0.0,0.0,100,0.00,,SKC,0.00,VWS V14.01,2013-07-14 09:00:00,
2013-07-14 05:03:00,72.3,72.3,29.93,SE,143,0.0,0.0,100,0.00,,SKC,0.00,VWS V14.01,2013-07-14 09:03:00,
2013-07-14 05:04:00,72.4,72.4,29.93,SE,143,0.0,0.0,100,0.00,,SKC,0.00,VWS V14.01,2013-07-14 09:04:00,
2013-07-14 05:05:00,72.3,72.4,29.93,SE,143,0.0,0.0,100,0.00,,SKC,0.00,VWS V14.01,2013-07-14 09:05:00,
2013-07-14 05:09:00,72.2,72.2,29.93,SE,143,0.0,0.0,100,0.00,,SKC,0.00,VWS V14.01,2013-07-14 09:09:00,
2013-07-14 05:10:00,72.2,72.2,29.93,SE,143,0.0,0.0,100,0.00,,SKC,0.00,VWS V14.01,2013-07-14 09:10:00,
2013-07-14 05:14:00,72.2,72.2,29.93,SE,143,0.0,0.0,100,0.00,,SKC,0.00,VWS V14.01,2013-07-14 09:14:00,
2013-07-14 05:16:00,72.2,72.2,29.93,SE,143,0.0,0.0,100,0.00,,SKC,0.00,VWS V14.01,2013-07-14 09:16:00,
2013-07-14 05:19:00,72.2,72.2,29.93,SE,143,0.0,0.0,100,0.00,,SKC,0.00,VWS V14.01,2013-07-14 09:19:00,
2013-07-14 05:21:00,72.2,72.2,29.93,SE,143,0.0,0.0,100,0.00,,SKC,0.00,VWS V14.01,2013-07-14 09:21:00,
2013-07-14 05:24:00,72.2,72.2,29.93,SE,143,0.0,0.0,100,0.00,,SKC,0.00,VWS V14.01,2013-07-14 09:24:00,
2013-07-14 05:26:00,72.2,72.2,29.93,SE,143,0.0,0.0,100,0.00,,SKC,0.00,VWS V14.01,2013-07-14 09:26:00,
2013-07-14 05:29:00,72.2,72.2,29.93,SE,143,0.0,0.0,100,0.00,,SKC,0.00,VWS V14.01,2013-07-14 09:29:00,
2013-07-14 05:31:00,72.2,72.2,29.93,SE,143,0.0,0.0,100,0.00,,SKC,0.00,VWS V14.01,2013-07-14 09:31:00,
2013-07-14 05:34:00,72.2,72.2,29.93,SE,143,0.0,0.0,100,0.00,,SKC,0.00,VWS V14.01,2013-07-14 09:34:00,
2013-07-14 05:36:00,72.2,72.2,29.93,SE,143,0.0,0.0,100,0.00,,SKC,0.00,VWS V14.01,2013-07-14 09:36:00,
2013-07-14 05:37:00,72.1,72.1,29.93,SE,143,0.0,0.0,100,0.00,,SKC,0.00,VWS V14.01,2013-07-14 09:37:00,
2013-07-14 05:39:00,72.0,72.0,29.93,SE,143,0.0,0.0,100,0.00,,SKC,0.00,VWS V14.01,2013-07-14 09:39:00,
2013-07-14 05:41:00,72.1,72.0,29.93,SE,143,0.0,0.0,100,0.00,,SKC,0.00,VWS V14.01,2013-07-14 09:41:00,
2013-07-14 05:42:00,72.0,72.0,29.93,SE,143,0.0,0.0,100,0.00,,SKC,0.00,VWS V14.01,2013-07-14 09:42:00,
2013-07-14 05:44:00,71.9,71.9,29.92,SE,143,0.0,0.0,100,0.00,,SKC,0.00,VWS V14.01,2013-07-14 09:44:00,
2013-07-14 05:46:00,71.9,71.9,29.93,SE,143,0.0,0.0,100,0.00,,SKC,0.00,VWS V14.01,2013-07-14 09:46:00,
2013-07-14 05:47:00,71.9,71.9,29.93,SE,143,0.0,0.0,100,0.00,,SKC,0.00,VWS V14.01,2013-07-14 09:47:00,
2013-07-14 05:49:00,71.9,71.9,29.93,SE,143,0.0,0.0,100,0.00,,SKC,0.00,VWS V14.01,2013-07-14 09:49:00,
2013-07-14 05:51:00,71.8,71.8,29.93,SE,143,0.0,0.0,100,0.00,,SKC,0.00,VWS V14.01,2013-07-14 09:51:00,
2013-07-14 05:52:00,71.8,71.8,29.93,SE,143,0.0,0.0,100,0.00,,SKC,0.00,VWS V14.01,2013-07-14 09:52:00,
2013-07-14 05:54:00,71.9,71.9,29.93,SE,143,0.0,0.0,100,0.00,,SKC,0.00,VWS V14.01,2013-07-14 09:54:00,
2013-07-14 05:56:00,71.8,71.8,29.93,SE,143,0.0,0.0,100,0.00,,SKC,0.00,VWS V14.01,2013-07-14 09:56:00,
2013-07-14 05:57:00,71.8,71.8,29.93,SE,143,0.0,0.0,100,0.00,,SKC,0.00,VWS V14.01,2013-07-14 09:57:00,
2013-07-14 05:59:00,71.7,71.7,29.93,SE,143,0.0,0.0,100,0.00,,SKC,0.00,VWS V14.01,2013-07-14 09:59:00,
2013-07-14 06:01:00,71.7,71.7,29.94,SE,143,0.0,0.0,100,0.00,,SKC,0.00,VWS V14.01,2013-07-14 10:01:00,
2013-07-14 06:02:00,71.7,71.7,29.94,SE,143,0.0,0.0,100,0.00,,SKC,0.00,VWS V14.01,2013-07-14 10:02:00,
2013-07-14 06:04:00,71.6,71.6,29.94,SE,143,0.0,0.0,100,0.00,,SKC,0.00,VWS V14.01,2013-07-14 10:04:00,
2013-07-14 06:06:00,71.6,71.6,29.94,SE,143,0.0,0.0,100,0.00,,SKC,0.00,VWS V14.01,2013-07-14 10:06:00,
2013-07-14 06:07:00,71.6,71.6,29.94,SE,143,0.0,0.0,100,0.00,,SKC,0.00,VWS V14.01,2013-07-14 10:07:00,
2013-07-14 06:08:00,71.6,71.5,29.94,SE,143,0.0,0.0,100,0.00,,SKC,0.00,VWS V14.01,2013-07-14 10:08:00,
2013-07-14 06:09:00,71.5,71.5,29.94,SE,143,0.0,0.0,100,0.00,,SKC,0.00,VWS V14.01,2013-07-14 10:09:00,
2013-07-14 06:10:00,71.6,71.6,29.94,SE,143,0.0,0.0,100,0.00,,SKC,0.00,VWS V14.01,2013-07-14 10:10:00,
2013-07-14 06:11:00,71.6,71.6,29.94,SE,143,0.0,0.0,100,0.00,,SKC,0.00,VWS V14.01,2013-07-14 10:11:00,
2013-07-14 06:12:00,71.5,71.5,29.94,SE,143,0.0,0.0,100,0.00,,SKC,0.00,VWS V14.01,2013-07-14 10:12:00,
2013-07-14 06:13:00,71.6,71.6,29.94,SE,143,0.0,0.0,100,0.00,,SKC,0.00,VWS V14.01,2013-07-14 10:13:00,
2013-07-14 06:14:00,71.5,71.5,29.94,SE,143,0.0,0.0,100,0.00,,SKC,0.00,VWS V14.01,2013-07-14 10:14:00,
2013-07-14 06:15:00,71.5,71.5,29.94,SE,143,0.0,0.0,100,0.00,,SKC,0.00,VWS V14.01,2013-07-14 10:15:00,
2013-07-14 06:16:00,71.5,71.5,29.94,SE,143,0.0,0.0,100,0.00,,SKC,0.00,VWS V14.01,2013-07-14 10:16:00,
2013-07-14 06:17:00,71.5,71.5,29.94,SE,143,0.0,0.0,100,0.00,,SKC,0.00,VWS V14.01,2013-07-14 10:17:00,
2013-07-14 06:18:00,71.5,71.5,29.94,SE,143,0.0,0.0,100,0.00,,SKC,0.00,VWS V14.01,2013-07-14 10:18:00,
2013-07-14 06:19:00,71.5,71.5,29.94,SE,143,0.0,0.0,100,0.00,,SKC,0.00,VWS V14.01,2013-07-14 10:19:00,
2013-07-14 06:20:00,71.5,71.5,29.94,SE,143,0.0,0.0,100,0.00,,SKC,0.00,VWS V14.01,2013-07-14 10:20:00,
2013-07-14 06:21:00,71.5,71.5,29.94,SE,143,0.0,0.0,100,0.00,,SKC,0.00,VWS V14.01,2013-07-14 10:21:00,
2013-07-14 06:22:00,71.5,71.5,29.94,SE,143,0.0,0.0,100,0.00,,SKC,0.00,VWS V14.01,2013-07-14 10:22:00,
2013-07-14 06:23:00,71.5,71.5,29.93,SE,143,0.0,0.0,100,0.00,,SKC,0.00,VWS V14.01,2013-07-14 10:23:00,
2013-07-14 06:25:00,71.5,71.5,29.94,SE,143,0.0,0.0,100,0.00,,SKC,0.00,VWS V14.01,2013-07-14 10:25:00,
2013-07-14 06:26:00,71.5,71.5,29.94,SE,143,0.0,0.0,100,0.00,,SKC,0.00,VWS V14.01,2013-07-14 10:26:00,
2013-07-14 06:27:00,71.5,71.5,29.94,SE,143,0.0,0.0,100,0.00,,SKC,0.00,VWS V14.01,2013-07-14 10:27:00,
2013-07-14 06:28:00,71.5,71.4,29.93,SE,143,0.0,0.0,100,0.00,,SKC,0.00,VWS V14.01,2013-07-14 10:28:00,
2013-07-14 06:30:00,71.5,71.5,29.94,SE,143,0.0,0.0,100,0.00,,SKC,0.00,VWS V14.01,2013-07-14 10:30:00,
2013-07-14 06:32:00,71.5,71.5,29.94,SE,143,0.0,0.0,100,0.00,,SKC,0.00,VWS V14.01,2013-07-14 10:32:00,
2013-07-14 06:33:00,71.4,71.4,29.94,SE,143,0.0,0.0,100,0.00,,SKC,0.00,VWS V14.01,2013-07-14 10:33:00,
2013-07-14 06:35:00,71.5,71.5,29.94,SE,143,0.0,0.0,100,0.00,,SKC,0.00,VWS V14.01,2013-07-14 10:35:00,
2013-07-14 06:37:00,71.4,71.4,29.94,SE,143,0.0,0.0,100,0.00,,SKC,0.00,VWS V14.01,2013-07-14 10:37:00,
2013-07-14 06:38:00,71.5,71.5,29.94,SE,143,0.0,0.0,100,0.00,,SKC,0.00,VWS V14.01,2013-07-14 10:38:00,
2013-07-14 06:40:00,71.5,71.5,29.95,SE,143,0.0,0.0,100,0.00,,SKC,0.00,VWS V14.01,2013-07-14 10:40:00,
2013-07-14 06:42:00,71.4,71.4,29.95,SE,143,0.0,0.0,100,0.00,,SKC,0.00,VWS V14.01,2013-07-14 10:42:00,
2013-07-14 06:43:00,71.5,71.5,29.95,SE,143,0.0,0.0,100,0.00,,SKC,0.00,VWS V14.01,2013-07-14 10:43:00,
2013-07-14 06:45:00,71.5,71.5,29.95,SE,143,0.0,0.0,100,0.00,,SKC,0.00,VWS V14.01,2013-07-14 10:45:00,
2013-07-14 06:46:00,71.5,71.5,29.95,SE,143,0.0,0.0,100,0.00,,SKC,0.00,VWS V14.01,2013-07-14 10:46:00,
2013-07-14 06:47:00,71.5,71.5,29.95,SE,143,0.0,0.0,100,0.00,,SKC,0.00,VWS V14.01,2013-07-14 10:47:00,
2013-07-14 06:48:00,71.4,71.4,29.95,SE,143,0.0,0.0,100,0.00,,SKC,0.00,VWS V14.01,2013-07-14 10:48:00,
2013-07-14 06:50:00,71.5,71.5,29.95,SE,143,0.0,0.0,100,0.00,,SKC,0.00,VWS V14.01,2013-07-14 10:50:00,
2013-07-14 06:51:00,71.5,71.5,29.95,SE,143,0.0,0.0,100,0.00,,SKC,0.00,VWS V14.01,2013-07-14 10:51:00,
2013-07-14 06:52:00,71.5,71.5,29.95,SE,143,0.0,0.0,100,0.00,,SKC,0.00,VWS V14.01,2013-07-14 10:52:00,
2013-07-14 06:53:00,71.5,71.5,29.95,SE,143,0.0,0.0,100,0.00,,SKC,0.00,VWS V14.01,2013-07-14 10:53:00,
2013-07-14 06:54:00,71.5,71.5,29.95,SE,143,0.0,0.0,100,0.00,,SKC,0.00,VWS V14.01,2013-07-14 10:54:00,
2013-07-14 06:56:00,71.5,71.5,29.95,SE,143,0.0,0.0,100,0.00,,SKC,0.00,VWS V14.01,2013-07-14 10:56:00,
2013-07-14 06:58:00,71.6,71.6,29.95,SE,143,0.0,0.0,100,0.00,,SKC,0.00,VWS V14.01,2013-07-14 10:58:00,
2013-07-14 06:59:00,71.6,71.6,29.95,SE,143,0.0,0.0,100,0.00,,SKC,0.00,VWS V14.01,2013-07-14 10:59:00,
2013-07-14 07:01:00,71.6,71.6,29.95,SE,143,0.0,0.0,100,0.00,,SKC,0.00,VWS V14.01,2013-07-14 11:01:00,
2013-07-14 07:03:00,71.7,71.7,29.95,SE,143,0.0,0.0,100,0.00,,SKC,0.00,VWS V14.01,2013-07-14 11:03:00,
2013-07-14 07:04:00,71.7,71.7,29.95,SE,143,0.0,0.0,100,0.00,,SKC,0.00,VWS V14.01,2013-07-14 11:04:00,
2013-07-14 07:06:00,71.7,71.7,29.95,SE,143,0.0,0.0,100,0.00,,SKC,0.00,VWS V14.01,2013-07-14 11:06:00,
2013-07-14 07:07:00,71.7,71.7,29.95,SE,143,0.0,0.0,100,0.00,,SKC,0.00,VWS V14.01,2013-07-14 11:07:00,
2013-07-14 07:08:00,71.7,71.7,29.95,SE,143,0.0,0.0,100,0.00,,SKC,0.00,VWS V14.01,2013-07-14 11:08:00,
2013-07-14 07:09:00,71.7,71.7,29.95,SE,143,0.0,0.0,100,0.00,,SKC,0.00,VWS V14.01,2013-07-14 11:09:00,
2013-07-14 07:11:00,71.7,71.7,29.95,SE,143,0.0,0.0,100,0.00,,SKC,0.00,VWS V14.01,2013-07-14 11:11:00,
2013-07-14 07:12:00,71.8,71.8,29.95,SE,143,0.0,0.0,100,0.00,,SKC,0.00,VWS V14.01,2013-07-14 11:12:00,
2013-07-14 07:13:00,71.7,71.7,29.95,SE,143,0.0,0.0,100,0.00,,SKC,0.00,VWS V14.01,2013-07-14 11:13:00,
2013-07-14 07:14:00,71.8,71.8,29.95,SE,143,0.0,0.0,100,0.00,,SKC,0.00,VWS V14.01,2013-07-14 11:14:00,
2013-07-14 07:16:00,71.8,71.8,29.95,SE,143,0.0,0.0,100,0.00,,SKC,0.00,VWS V14.01,2013-07-14 11:16:00,
2013-07-14 07:17:00,71.8,71.8,29.95,SE,143,0.0,0.0,100,0.00,,SKC,0.00,VWS V14.01,2013-07-14 11:17:00,
2013-07-14 07:18:00,71.8,71.8,29.95,SE,143,0.0,0.0,100,0.00,,SKC,0.00,VWS V14.01,2013-07-14 11:18:00,
2013-07-14 07:19:00,71.8,71.8,29.95,SE,143,0.0,0.0,100,0.00,,SKC,0.00,VWS V14.01,2013-07-14 11:19:00,
2013-07-14 07:22:00,71.9,71.9,29.95,SE,143,0.0,0.0,100,0.00,,SKC,0.00,VWS V14.01,2013-07-14 11:22:00,
2013-07-14 07:23:00,71.9,71.9,29.95,SE,143,0.0,0.0,100,0.00,,SKC,0.00,VWS V14.01,2013-07-14 11:23:00,
2013-07-14 07:24:00,71.9,71.9,29.95,SE,143,0.0,0.0,100,0.00,,SKC,0.00,VWS V14.01,2013-07-14 11:24:00,
2013-07-14 07:27:00,71.9,71.9,29.95,SE,143,0.0,0.0,100,0.00,,SKC,0.00,VWS V14.01,2013-07-14 11:27:00,
2013-07-14 07:28:00,71.9,71.9,29.96,SE,143,0.0,0.0,100,0.00,,SKC,0.00,VWS V14.01,2013-07-14 11:28:00,
2013-07-14 07:29:00,71.9,71.9,29.96,SE,143,0.0,0.0,100,0.00,,SKC,0.00,VWS V14.01,2013-07-14 11:29:00,
2013-07-14 07:32:00,71.9,71.9,29.96,SE,143,0.0,0.0,100,0.00,,SKC,0.00,VWS V14.01,2013-07-14 11:32:00,
2013-07-14 07:33:00,72.0,72.0,29.96,SE,143,0.0,0.0,100,0.00,,SKC,0.00,VWS V14.01,2013-07-14 11:33:00,
2013-07-14 07:34:00,72.0,72.0,29.96,SE,143,0.0,0.0,100,0.00,,SKC,0.00,VWS V14.01,2013-07-14 11:34:00,
2013-07-14 07:35:00,72.0,72.0,29.96,SE,143,0.0,0.0,100,0.00,,SKC,0.00,VWS V14.01,2013-07-14 11:35:00,
2013-07-14 07:37:00,72.1,72.1,29.96,SE,143,0.0,0.0,100,0.00,,SKC,0.00,VWS V14.01,2013-07-14 11:37:00,
2013-07-14 07:38:00,72.0,72.0,29.95,SE,143,0.0,0.0,100,0.00,,SKC,0.00,VWS V14.01,2013-07-14 11:38:00,
2013-07-14 07:40:00,72.1,72.1,29.96,SE,143,0.0,0.0,100,0.00,,SKC,0.00,VWS V14.01,2013-07-14 11:40:00,
2013-07-14 07:42:00,72.1,72.1,29.96,SE,143,0.0,0.0,100,0.00,,SKC,0.00,VWS V14.01,2013-07-14 11:42:00,
2013-07-14 07:43:00,72.0,72.0,29.96,SE,143,0.0,0.0,100,0.00,,SKC,0.00,VWS V14.01,2013-07-14 11:43:00,
2013-07-14 07:45:00,72.2,72.2,29.96,SE,143,0.0,0.0,100,0.00,,SKC,0.00,VWS V14.01,2013-07-14 11:45:00,
2013-07-14 07:48:00,72.3,72.3,29.96,SE,143,0.0,0.0,100,0.00,,SKC,0.00,VWS V14.01,2013-07-14 11:48:00,
2013-07-14 07:50:00,72.3,72.3,29.96,SE,143,0.0,0.0,100,0.00,,SKC,0.00,VWS V14.01,2013-07-14 11:50:00,
2013-07-14 07:53:00,72.4,72.4,29.96,SE,143,0.0,0.0,100,0.00,,SKC,0.00,VWS V14.01,2013-07-14 11:53:00,
2013-07-14 07:55:00,72.4,72.4,29.96,SE,143,0.0,0.0,100,0.00,,SKC,0.00,VWS V14.01,2013-07-14 11:55:00,
2013-07-14 07:58:00,72.5,72.5,29.96,SE,143,0.0,0.0,100,0.00,,SKC,0.00,VWS V14.01,2013-07-14 11:58:00,
2013-07-14 08:00:00,72.7,72.7,29.96,SE,143,0.0,0.0,100,0.00,,SKC,0.00,VWS V14.01,2013-07-14 12:00:00,
2013-07-14 08:01:00,72.7,72.7,29.96,SE,143,0.0,0.0,100,0.00,,SKC,0.00,VWS V14.01,2013-07-14 12:01:00,
2013-07-14 08:03:00,72.8,72.8,29.96,SE,143,0.0,0.0,100,0.00,,SKC,0.00,VWS V14.01,2013-07-14 12:03:00,
2013-07-14 08:06:00,72.9,72.9,29.96,SE,143,0.0,0.0,100,0.00,,SKC,0.00,VWS V14.01,2013-07-14 12:06:00,
2013-07-14 08:08:00,73.0,73.0,29.96,SE,143,0.0,0.0,100,0.00,,SKC,0.00,VWS V14.01,2013-07-14 12:08:00,
2013-07-14 08:09:00,73.1,73.1,29.96,SE,143,0.0,0.0,100,0.00,,SKC,0.00,VWS V14.01,2013-07-14 12:09:00,
2013-07-14 08:11:00,73.2,73.2,29.96,SE,143,0.0,0.0,100,0.00,,SKC,0.00,VWS V14.01,2013-07-14 12:11:00,
2013-07-14 08:12:00,73.2,73.2,29.97,SE,143,0.0,0.0,100,0.00,,SKC,0.00,VWS V14.01,2013-07-14 12:12:00,
2013-07-14 08:13:00,73.3,73.3,29.97,SE,143,0.0,0.0,100,0.00,,SKC,0.00,VWS V14.01,2013-07-14 12:13:00,
2013-07-14 08:14:00,73.2,73.2,29.97,SE,143,0.0,0.0,100,0.00,,SKC,0.00,VWS V14.01,2013-07-14 12:14:00,
2013-07-14 08:16:00,73.4,73.4,29.97,SE,143,0.0,0.0,100,0.00,,SKC,0.00,VWS V14.01,2013-07-14 12:16:00,
2013-07-14 08:17:00,73.5,73.5,29.97,SE,143,0.0,0.0,100,0.00,,SKC,0.00,VWS V14.01,2013-07-14 12:17:00,
2013-07-14 08:18:00,73.6,73.6,29.97,SE,143,0.0,0.0,100,0.00,,SKC,0.00,VWS V14.01,2013-07-14 12:18:00,
2013-07-14 08:19:00,73.6,73.6,29.97,SE,143,0.0,0.0,100,0.00,,SKC,0.00,VWS V14.01,2013-07-14 12:19:00,
2013-07-14 08:21:00,73.9,73.9,29.97,SE,143,0.0,0.0,100,0.00,,SKC,0.00,VWS V14.01,2013-07-14 12:21:00,
2013-07-14 08:22:00,73.9,73.9,29.97,SE,143,0.0,0.0,100,0.00,,SKC,0.00,VWS V14.01,2013-07-14 12:22:00,
2013-07-14 08:23:00,74.0,74.0,29.97,SE,143,0.0,0.0,100,0.00,,SKC,0.00,VWS V14.01,2013-07-14 12:23:00,
2013-07-14 08:24:00,74.1,74.1,29.97,SE,143,0.0,0.0,100,0.00,,SKC,0.00,VWS V14.01,2013-07-14 12:24:00,
2013-07-14 08:26:00,74.4,74.4,29.97,SE,143,0.0,0.0,100,0.00,,SKC,0.00,VWS V14.01,2013-07-14 12:26:00,
2013-07-14 08:27:00,74.3,74.3,29.97,SE,143,0.0,0.0,100,0.00,,SKC,0.00,VWS V14.01,2013-07-14 12:27:00,
2013-07-14 08:28:00,74.4,74.4,29.97,SE,143,0.0,0.0,100,0.00,,SKC,0.00,VWS V14.01,2013-07-14 12:28:00,
2013-07-14 08:29:00,74.5,74.5,29.97,SE,143,0.0,0.0,100,0.00,,SKC,0.00,VWS V14.01,2013-07-14 12:29:00,
2013-07-14 08:31:00,74.8,74.8,29.97,SE,143,0.0,0.0,100,0.00,,SKC,0.00,VWS V14.01,2013-07-14 12:31:00,
2013-07-14 08:32:00,74.8,74.8,29.97,SE,143,0.0,0.0,100,0.00,,SKC,0.00,VWS V14.01,2013-07-14 12:32:00,
2013-07-14 08:33:00,74.9,74.9,29.97,SE,146,0.0,4.3,100,0.00,,SKC,0.00,VWS V14.01,2013-07-14 12:33:00,
2013-07-14 08:34:00,75.0,75.0,29.97,SE,146,0.0,4.3,100,0.00,,SKC,0.00,VWS V14.01,2013-07-14 12:34:00,
2013-07-14 08:37:00,75.2,75.2,29.97,South,174,0.0,8.4,100,0.00,,SKC,0.00,VWS V14.01,2013-07-14 12:37:00,
2013-07-14 08:38:00,75.3,75.3,29.97,South,174,0.0,8.4,100,0.00,,SKC,0.00,VWS V14.01,2013-07-14 12:38:00,
2013-07-14 08:39:00,75.3,75.3,29.97,South,174,0.0,8.4,100,0.00,,SKC,0.00,VWS V14.01,2013-07-14 12:39:00,
2013-07-14 08:42:00,75.6,75.6,29.98,South,174,0.0,8.4,100,0.00,,SKC,0.00,VWS V14.01,2013-07-14 12:42:00,
2013-07-14 08:43:00,75.8,75.8,29.97,South,174,0.0,8.4,100,0.00,,SKC,0.00,VWS V14.01,2013-07-14 12:43:00,
2013-07-14 08:44:00,75.7,75.7,29.97,South,174,0.0,8.4,100,0.00,,SKC,0.00,VWS V14.01,2013-07-14 12:44:00,
2013-07-14 08:47:00,76.1,76.1,29.97,South,174,0.0,8.4,100,0.00,,SKC,0.00,VWS V14.01,2013-07-14 12:47:00,
2013-07-14 08:48:00,76.0,76.0,29.97,South,174,0.0,8.4,100,0.00,,SKC,0.00,VWS V14.01,2013-07-14 12:48:00,
2013-07-14 08:49:00,76.1,76.1,29.97,South,174,0.0,8.4,100,0.00,,SKC,0.00,VWS V14.01,2013-07-14 12:49:00,
2013-07-14 08:52:00,76.4,76.4,29.98,South,174,0.0,8.4,100,0.00,,SKC,0.00,VWS V14.01,2013-07-14 12:52:00,
2013-07-14 08:54:00,76.4,76.4,29.97,South,174,0.0,8.4,100,0.00,,SKC,0.00,VWS V14.01,2013-07-14 12:54:00,
2013-07-14 08:55:00,76.6,76.6,29.97,South,174,0.0,8.4,100,0.00,,SKC,0.00,VWS V14.01,2013-07-14 12:55:00,
2013-07-14 08:57:00,76.8,76.8,29.97,South,174,0.0,8.4,100,0.00,,SKC,0.00,VWS V14.01,2013-07-14 12:57:00,
2013-07-14 08:59:00,77.0,77.0,29.98,South,174,0.0,8.4,100,0.00,,SKC,0.00,VWS V14.01,2013-07-14 12:59:00,
2013-07-14 09:00:00,77.0,77.0,29.98,South,174,0.0,8.4,100,0.00,,SKC,0.00,VWS V14.01,2013-07-14 13:00:00,
2013-07-14 09:03:00,77.2,77.2,29.98,South,174,0.0,8.4,100,0.00,,SKC,0.00,VWS V14.01,2013-07-14 13:03:00,
2013-07-14 09:04:00,77.3,77.3,29.97,South,174,0.0,8.4,100,0.00,,SKC,0.00,VWS V14.01,2013-07-14 13:04:00,
2013-07-14 09:05:00,77.4,77.4,29.97,North,359,8.2,8.4,100,0.00,,SKC,0.00,VWS V14.01,2013-07-14 13:05:00,
2013-07-14 09:08:00,77.4,77.4,29.98,SE,142,0.0,8.4,100,0.00,,SKC,0.00,VWS V14.01,2013-07-14 13:08:00,
2013-07-14 09:09:00,77.5,77.5,29.98,SE,142,0.0,8.4,100,0.00,,SKC,0.00,VWS V14.01,2013-07-14 13:09:00,
2013-07-14 09:10:00,77.5,77.5,29.98,SE,142,0.0,8.4,100,0.00,,SKC,0.00,VWS V14.01,2013-07-14 13:10:00,
2013-07-14 09:13:00,77.8,77.8,29.98,South,180,0.8,8.6,100,0.00,,SKC,0.00,VWS V14.01,2013-07-14 13:13:00,
2013-07-14 09:14:00,78.0,78.0,29.98,South,188,3.5,8.6,100,0.00,,SKC,0.00,VWS V14.01,2013-07-14 13:14:00,
2013-07-14 09:15:00,78.0,78.0,29.98,SSW,193,3.7,8.6,100,0.00,,SKC,0.00,VWS V14.01,2013-07-14 13:15:00,
2013-07-14 09:16:00,78.0,78.1,29.98,South,188,0.0,8.6,100,0.00,,SKC,0.00,VWS V14.01,2013-07-14 13:16:00,
2013-07-14 09:18:00,78.2,78.2,29.99,South,186,2.5,8.6,100,0.00,,SKC,0.00,VWS V14.01,2013-07-14 13:18:00,
2013-07-14 09:19:00,78.3,78.3,29.98,South,179,3.1,8.6,100,0.00,,SKC,0.00,VWS V14.01,2013-07-14 13:19:00,
2013-07-14 09:20:00,78.3,78.3,29.98,South,179,0.0,8.6,100,0.00,,SKC,0.00,VWS V14.01,2013-07-14 13:20:00,
2013-07-14 09:21:00,78.4,78.4,29.98,South,179,0.0,8.6,100,0.00,,SKC,0.00,VWS V14.01,2013-07-14 13:21:00,
2013-07-14 09:23:00,78.5,78.5,29.98,South,179,0.3,8.6,100,0.00,,SKC,0.00,VWS V14.01,2013-07-14 13:23:00,
2013-07-14 09:24:00,78.5,78.5,29.98,South,174,1.8,11.4,100,0.00,,SKC,0.00,VWS V14.01,2013-07-14 13:24:00,
2013-07-14 09:25:00,78.5,78.5,29.98,SSE,166,4.1,11.4,100,0.00,,SKC,0.00,VWS V14.01,2013-07-14 13:25:00,
2013-07-14 09:26:00,78.5,78.5,29.98,South,183,4.0,11.4,100,0.00,,SKC,0.00,VWS V14.01,2013-07-14 13:26:00,
2013-07-14 09:29:00,78.5,78.5,29.98,North,359,0.0,11.4,100,0.00,,SKC,0.00,VWS V14.01,2013-07-14 13:29:00,
2013-07-14 09:30:00,78.5,78.5,29.98,SSE,167,0.0,11.4,100,0.00,,SKC,0.00,VWS V14.01,2013-07-14 13:30:00,
2013-07-14 09:32:00,78.5,78.5,29.98,South,173,3.3,11.4,100,0.00,,SKC,0.00,VWS V14.01,2013-07-14 13:32:00,
2013-07-14 09:34:00,78.7,78.7,29.98,SSE,160,0.0,11.4,100,0.00,,SKC,0.00,VWS V14.01,2013-07-14 13:34:00,
2013-07-14 09:35:00,78.7,78.7,29.98,North,359,1.7,11.4,100,0.00,,SKC,0.00,VWS V14.01,2013-07-14 13:35:00,
2013-07-14 09:36:00,78.4,78.5,29.98,North,359,0.0,11.4,100,0.00,,SKC,0.00,VWS V14.01,2013-07-14 13:36:00,
2013-07-14 09:37:00,78.4,78.4,29.98,North,359,0.0,11.4,100,0.00,,SKC,0.00,VWS V14.01,2013-07-14 13:37:00,
2013-07-14 09:39:00,78.5,78.5,29.98,North,359,0.0,11.4,100,0.00,,SKC,0.00,VWS V14.01,2013-07-14 13:39:00,
2013-07-14 09:40:00,78.4,78.4,29.98,SSE,158,0.0,11.4,100,0.00,,SKC,0.00,VWS V14.01,2013-07-14 13:40:00,
2013-07-14 09:41:00,78.5,78.5,29.98,SSE,150,2.7,11.4,100,0.00,,SKC,0.00,VWS V14.01,2013-07-14 13:41:00,
2013-07-14 09:42:00,78.5,78.5,29.98,SSE,167,2.2,11.4,100,0.00,,SKC,0.00,VWS V14.01,2013-07-14 13:42:00,
2013-07-14 09:44:00,78.5,78.5,29.98,SSE,158,0.0,11.4,100,0.00,,SKC,0.00,VWS V14.01,2013-07-14 13:44:00,
2013-07-14 09:45:00,78.5,78.5,29.98,South,180,0.0,11.4,100,0.00,,SKC,0.00,VWS V14.01,2013-07-14 13:45:00,
2013-07-14 09:46:00,78.7,78.7,29.98,South,180,0.0,11.4,100,0.00,,SKC,0.00,VWS V14.01,2013-07-14 13:46:00,
2013-07-14 09:47:00,78.7,78.7,29.98,South,180,0.0,11.4,100,0.00,,SKC,0.00,VWS V14.01,2013-07-14 13:47:00,
2013-07-14 09:49:00,78.9,78.9,29.97,South,181,0.0,11.4,100,0.00,,SKC,0.00,VWS V14.01,2013-07-14 13:49:00,
2013-07-14 09:50:00,78.9,78.9,29.97,South,181,0.0,11.4,100,0.00,,SKC,0.00,VWS V14.01,2013-07-14 13:50:00,
2013-07-14 09:51:00,79.0,79.0,29.98,South,181,0.0,11.4,100,0.00,,SKC,0.00,VWS V14.01,2013-07-14 13:51:00,
2013-07-14 09:52:00,79.0,79.0,29.98,South,181,0.0,11.4,100,0.00,,SKC,0.00,VWS V14.01,2013-07-14 13:52:00,
2013-07-14 09:53:00,79.0,79.0,29.98,South,181,0.0,11.4,100,0.00,,SKC,0.00,VWS V14.01,2013-07-14 13:53:00,
2013-07-14 09:54:00,79.0,79.0,29.98,South,181,0.0,11.4,100,0.00,,SKC,0.00,VWS V14.01,2013-07-14 13:54:00,
2013-07-14 09:55:00,79.1,79.1,29.98,South,177,3.8,11.4,100,0.00,,SKC,0.00,VWS V14.01,2013-07-14 13:55:00,
2013-07-14 09:56:00,79.0,79.0,29.98,SSE,158,4.7,11.4,100,0.00,,SKC,0.00,VWS V14.01,2013-07-14 13:56:00,
2013-07-14 09:57:00,79.1,79.1,29.98,South,179,8.9,11.4,100,0.00,,SKC,0.00,VWS V14.01,2013-07-14 13:57:00,
2013-07-14 09:58:00,79.1,79.1,29.98,SSE,152,4.0,11.4,100,0.00,,SKC,0.00,VWS V14.01,2013-07-14 13:58:00,
2013-07-14 09:59:00,79.2,79.2,29.98,SSE,152,2.4,11.4,100,0.00,,SKC,0.00,VWS V14.01,2013-07-14 13:59:00,
2013-07-14 10:00:00,79.1,79.1,29.98,SE,136,0.3,11.4,100,0.00,,SKC,0.00,VWS V14.01,2013-07-14 14:00:00,
2013-07-14 10:01:00,79.2,79.2,29.98,North,359,7.0,11.4,100,0.00,,SKC,0.00,VWS V14.01,2013-07-14 14:01:00,
2013-07-14 10:02:00,79.2,79.2,29.98,South,174,2.2,11.4,100,0.00,,SKC,0.00,VWS V14.01,2013-07-14 14:02:00,
2013-07-14 10:03:00,79.3,79.3,29.98,SSE,155,0.0,11.4,100,0.00,,SKC,0.00,VWS V14.01,2013-07-14 14:03:00,
2013-07-14 10:05:00,79.2,79.2,29.98,SSE,155,0.0,11.4,100,0.00,,SKC,0.00,VWS V14.01,2013-07-14 14:05:00,
2013-07-14 10:06:00,79.2,79.2,29.98,South,180,4.1,11.4,100,0.00,,SKC,0.00,VWS V14.01,2013-07-14 14:06:00,
2013-07-14 10:07:00,79.3,79.3,29.98,SSE,165,1.9,11.4,100,0.00,,SKC,0.00,VWS V14.01,2013-07-14 14:07:00,
2013-07-14 10:08:00,79.4,79.4,29.98,South,180,2.7,11.4,100,0.00,,SKC,0.00,VWS V14.01,2013-07-14 14:08:00,
2013-07-14 10:10:00,79.4,79.4,29.98,SSE,152,2.5,11.4,100,0.00,,SKC,0.00,VWS V14.01,2013-07-14 14:10:00,
2013-07-14 10:11:00,79.4,79.4,29.98,SSE,166,3.7,11.4,100,0.00,,SKC,0.00,VWS V14.01,2013-07-14 14:11:00,
2013-07-14 10:12:00,79.5,79.5,29.98,SSE,156,0.0,11.4,100,0.00,,SKC,0.00,VWS V14.01,2013-07-14 14:12:00,
2013-07-14 10:13:00,79.4,79.4,29.98,North,359,3.7,11.4,100,0.00,,SKC,0.00,VWS V14.01,2013-07-14 14:13:00,
2013-07-14 10:16:00,79.4,79.4,29.98,South,173,0.0,11.4,100,0.00,,SKC,0.00,VWS V14.01,2013-07-14 14:16:00,
2013-07-14 10:17:00,79.4,79.4,29.98,South,173,0.0,11.4,100,0.00,,SKC,0.00,VWS V14.01,2013-07-14 14:17:00,
2013-07-14 10:19:00,79.3,79.3,29.98,South,173,0.0,11.4,100,0.00,,SKC,0.00,VWS V14.01,2013-07-14 14:19:00,
2013-07-14 10:21:00,79.4,79.4,29.98,South,173,0.0,11.4,100,0.00,,SKC,0.00,VWS V14.01,2013-07-14 14:21:00,
2013-07-14 10:22:00,79.5,79.5,29.98,South,173,0.0,11.4,100,0.00,,SKC,0.00,VWS V14.01,2013-07-14 14:22:00,
2013-07-14 10:23:00,79.7,79.7,29.98,South,173,0.0,11.4,100,0.00,,SKC,0.00,VWS V14.01,2013-07-14 14:23:00,
2013-07-14 10:24:00,79.8,79.8,29.98,South,173,0.0,11.4,100,0.00,,SKC,0.00,VWS V14.01,2013-07-14 14:24:00,
2013-07-14 10:26:00,79.9,79.9,29.98,South,173,4.8,11.4,100,0.00,,SKC,0.00,VWS V14.01,2013-07-14 14:26:00,
2013-07-14 10:27:00,79.8,79.8,29.98,SSE,162,5.2,11.4,100,0.00,,SKC,0.00,VWS V14.01,2013-07-14 14:27:00,
2013-07-14 10:28:00,79.8,79.8,29.98,South,170,0.0,11.4,100,0.00,,SKC,0.00,VWS V14.01,2013-07-14 14:28:00,
2013-07-14 10:29:00,79.8,79.8,29.98,SSE,163,5.1,11.4,100,0.00,,SKC,0.00,VWS V14.01,2013-07-14 14:29:00,
2013-07-14 10:31:00,79.7,79.7,29.98,SSE,162,6.4,11.4,100,0.00,,SKC,0.00,VWS V14.01,2013-07-14 14:31:00,
2013-07-14 10:32:00,79.5,79.5,29.98,SSE,167,6.0,11.4,100,0.00,,SKC,0.00,VWS V14.01,2013-07-14 14:32:00,
2013-07-14 10:33:00,79.4,79.4,29.98,South,169,3.0,11.4,100,0.00,,SKC,0.00,VWS V14.01,2013-07-14 14:33:00,
2013-07-14 10:34:00,79.4,79.4,29.98,South,170,2.1,11.4,100,0.00,,SKC,0.00,VWS V14.01,2013-07-14 14:34:00,
2013-07-14 10:36:00,79.5,79.5,29.98,SE,141,5.2,11.4,100,0.00,,SKC,0.00,VWS V14.01,2013-07-14 14:36:00,
2013-07-14 10:37:00,79.3,79.3,29.98,SSE,153,4.0,11.4,100,0.00,,SKC,0.00,VWS V14.01,2013-07-14 14:37:00,
2013-07-14 10:38:00,79.4,79.4,29.98,South,188,5.7,11.4,100,0.00,,SKC,0.00,VWS V14.01,2013-07-14 14:38:00,
2013-07-14 10:39:00,79.4,79.4,29.98,SSE,152,1.6,11.4,100,0.00,,SKC,0.00,VWS V14.01,2013-07-14 14:39:00,
2013-07-14 10:41:00,79.2,79.2,29.98,SSE,152,6.1,11.4,100,0.00,,SKC,0.00,VWS V14.01,2013-07-14 14:41:00,
2013-07-14 10:42:00,79.3,79.3,29.98,South,170,0.0,11.4,100,0.00,,SKC,0.00,VWS V14.01,2013-07-14 14:42:00,
2013-07-14 10:43:00,79.3,79.3,29.98,South,170,0.0,11.4,100,0.00,,SKC,0.00,VWS V14.01,2013-07-14 14:43:00,
2013-07-14 10:44:00,79.4,79.4,29.98,South,170,0.0,11.4,100,0.00,,SKC,0.00,VWS V14.01,2013-07-14 14:44:00,
2013-07-14 10:46:00,79.5,79.5,29.98,South,170,0.0,11.4,100,0.00,,SKC,0.00,VWS V14.01,2013-07-14 14:46:00,
2013-07-14 10:47:00,79.5,79.5,29.98,North,359,0.0,11.4,100,0.00,,SKC,0.00,VWS V14.01,2013-07-14 14:47:00,
2013-07-14 10:48:00,79.5,79.5,29.98,South,173,1.9,11.4,100,0.00,,SKC,0.00,VWS V14.01,2013-07-14 14:48:00,
2013-07-14 10:49:00,79.5,79.5,29.98,SSE,167,9.1,11.4,100,0.00,,SKC,0.00,VWS V14.01,2013-07-14 14:49:00,
2013-07-14 10:51:00,79.4,79.4,29.98,South,177,3.4,11.4,100,0.00,,SKC,0.00,VWS V14.01,2013-07-14 14:51:00,
2013-07-14 10:52:00,79.5,79.5,29.98,SSW,193,4.5,11.4,100,0.00,,SKC,0.00,VWS V14.01,2013-07-14 14:52:00,
2013-07-14 10:53:00,79.7,79.5,29.98,South,188,8.1,11.4,100,0.00,,SKC,0.00,VWS V14.01,2013-07-14 14:53:00,
2013-07-14 10:54:00,79.4,79.4,29.98,SSW,201,6.2,11.4,100,0.00,,SKC,0.00,VWS V14.01,2013-07-14 14:54:00,
2013-07-14 10:56:00,79.4,79.4,29.99,SSE,167,0.0,11.4,100,0.00,,SKC,0.00,VWS V14.01,2013-07-14 14:56:00,
2013-07-14 10:57:00,79.4,79.4,29.99,SSW,201,4.5,11.4,100,0.00,,SKC,0.00,VWS V14.01,2013-07-14 14:57:00,
2013-07-14 10:58:00,79.4,79.4,29.99,North,359,1.6,11.4,100,0.00,,SKC,0.00,VWS V14.01,2013-07-14 14:58:00,
2013-07-14 10:59:00,79.4,79.4,29.99,SSW,200,6.3,11.4,100,0.00,,SKC,0.00,VWS V14.01,2013-07-14 14:59:00,
2013-07-14 11:02:00,79.4,79.4,29.99,SSE,152,5.4,11.4,100,0.00,,SKC,0.00,VWS V14.01,2013-07-14 15:02:00,
2013-07-14 11:03:00,79.4,79.3,30.00,North,359,3.3,11.4,100,0.00,,SKC,0.00,VWS V14.01,2013-07-14 15:03:00,
2013-07-14 11:04:00,79.3,79.3,29.99,SSE,166,0.0,11.4,100,0.00,,SKC,0.00,VWS V14.01,2013-07-14 15:04:00,
2013-07-14 11:05:00,79.4,79.4,29.99,South,176,9.6,11.4,100,0.00,,SKC,0.00,VWS V14.01,2013-07-14 15:05:00,
2013-07-14 11:07:00,79.3,79.3,29.99,North,359,0.0,11.4,100,0.00,,SKC,0.00,VWS V14.01,2013-07-14 15:07:00,
2013-07-14 11:08:00,79.3,79.3,29.99,South,180,5.2,11.4,100,0.00,,SKC,0.00,VWS V14.01,2013-07-14 15:08:00,
2013-07-14 11:09:00,79.3,79.3,30.00,South,181,0.0,11.4,100,0.00,,SKC,0.00,VWS V14.01,2013-07-14 15:09:00,
2013-07-14 11:10:00,79.3,79.3,30.00,SSE,167,6.3,11.4,100,0.00,,SKC,0.00,VWS V14.01,2013-07-14 15:10:00,
2013-07-14 11:12:00,79.4,79.4,30.00,SSE,160,6.0,11.4,100,0.00,,SKC,0.00,VWS V14.01,2013-07-14 15:12:00,
2013-07-14 11:13:00,79.4,79.4,30.00,South,169,4.9,11.4,100,0.00,,SKC,0.00,VWS V14.01,2013-07-14 15:13:00,
2013-07-14 11:14:00,79.7,79.7,30.00,SSE,167,0.7,11.4,100,0.00,,SKC,0.00,VWS V14.01,2013-07-14 15:14:00,
2013-07-14 11:15:00,79.4,79.4,30.00,North,359,0.4,11.4,100,0.00,,SKC,0.00,VWS V14.01,2013-07-14 15:15:00,
2013-07-14 11:17:00,79.1,79.1,30.00,SSW,194,7.0,11.4,100,0.00,,SKC,0.00,VWS V14.01,2013-07-14 15:17:00,
2013-07-14 11:18:00,79.1,79.1,30.00,North,359,6.6,11.4,100,0.00,,SKC,0.00,VWS V14.01,2013-07-14 15:18:00,
2013-07-14 11:19:00,79.0,79.0,30.00,North,359,9.4,11.4,100,0.00,,SKC,0.00,VWS V14.01,2013-07-14 15:19:00,
2013-07-14 11:20:00,79.1,79.0,30.00,South,179,8.6,11.4,100,0.00,,SKC,0.00,VWS V14.01,2013-07-14 15:20:00,
2013-07-14 11:23:00,79.1,79.1,30.00,South,184,3.2,11.4,100,0.00,,SKC,0.00,VWS V14.01,2013-07-14 15:23:00,
2013-07-14 11:24:00,79.3,79.3,30.00,SSW,211,3.9,11.4,100,0.00,,SKC,0.00,VWS V14.01,2013-07-14 15:24:00,
2013-07-14 11:25:00,79.4,79.4,30.00,SSE,163,9.8,12.0,100,0.00,,SKC,0.00,VWS V14.01,2013-07-14 15:25:00,
2013-07-14 11:28:00,79.1,79.1,30.00,South,187,7.7,12.0,100,0.00,,SKC,0.00,VWS V14.01,2013-07-14 15:28:00,
2013-07-14 11:29:00,79.0,79.0,30.00,North,359,0.0,12.0,100,0.00,,SKC,0.00,VWS V14.01,2013-07-14 15:29:00,
2013-07-14 11:30:00,79.0,79.0,30.00,South,188,6.6,12.0,100,0.00,,SKC,0.00,VWS V14.01,2013-07-14 15:30:00,
2013-07-14 11:33:00,79.2,79.2,30.00,SSE,163,8.0,12.0,100,0.00,,SKC,0.00,VWS V14.01,2013-07-14 15:33:00,
2013-07-14 11:34:00,79.2,79.2,30.00,North,359,0.0,12.0,100,0.00,,SKC,0.00,VWS V14.01,2013-07-14 15:34:00,
2013-07-14 11:36:00,79.4,79.5,30.01,North,359,0.0,12.0,100,0.00,,SKC,0.00,VWS V14.01,2013-07-14 15:36:00,
2013-07-14 11:38:00,79.8,79.8,30.01,South,170,4.2,12.0,100,0.00,,SKC,0.00,VWS V14.01,2013-07-14 15:38:00,
2013-07-14 11:39:00,79.9,79.9,30.01,SSE,158,7.5,12.0,100,0.00,,SKC,0.00,VWS V14.01,2013-07-14 15:39:00,
2013-07-14 11:40:00,79.9,79.8,30.01,South,170,7.4,12.0,100,0.00,,SKC,0.00,VWS V14.01,2013-07-14 15:40:00,
2013-07-14 11:41:00,79.8,79.7,30.01,SSE,162,6.5,12.0,100,0.00,,SKC,0.00,VWS V14.01,2013-07-14 15:41:00,
2013-07-14 11:43:00,79.9,79.8,30.01,South,174,8.5,12.0,100,0.00,,SKC,0.00,VWS V14.01,2013-07-14 15:43:00,
2013-07-14 11:44:00,79.9,79.8,30.01,SSE,165,5.0,12.0,100,0.00,,SKC,0.00,VWS V14.01,2013-07-14 15:44:00,
2013-07-14 11:45:00,79.9,79.8,30.01,South,187,0.0,12.0,100,0.00,,SKC,0.00,VWS V14.01,2013-07-14 15:45:00,
2013-07-14 11:46:00,79.9,79.8,30.01,North,359,1.4,12.0,100,0.00,,SKC,0.00,VWS V14.01,2013-07-14 15:46:00,
2013-07-14 11:48:00,80.0,79.8,30.01,South,172,5.2,12.0,99,0.00,,SKC,0.00,VWS V14.01,2013-07-14 15:48:00,
2013-07-14 11:49:00,80.0,79.8,30.01,SSE,165,5.7,12.0,99,0.00,,SKC,0.00,VWS V14.01,2013-07-14 15:49:00,
2013-07-14 11:50:00,80.0,80.0,30.01,SW,229,2.5,12.0,100,0.00,,SKC,0.00,VWS V14.01,2013-07-14 15:50:00,
2013-07-14 11:51:00,80.2,80.2,30.01,SSW,202,0.5,12.0,100,0.00,,SKC,0.00,VWS V14.01,2013-07-14 15:51:00,
2013-07-14 11:53:00,80.3,80.3,30.01,SSW,198,1.6,12.0,100,0.00,,SKC,0.00,VWS V14.01,2013-07-14 15:53:00,
2013-07-14 11:54:00,80.4,80.4,30.01,South,191,0.0,12.0,100,0.00,,SKC,0.00,VWS V14.01,2013-07-14 15:54:00,
2013-07-14 11:55:00,80.4,80.3,30.01,South,169,6.2,12.0,100,0.00,,SKC,0.00,VWS V14.01,2013-07-14 15:55:00,
2013-07-14 11:56:00,80.4,80.2,30.02,SSE,165,0.0,12.0,99,0.00,,SKC,0.00,VWS V14.01,2013-07-14 15:56:00,
2013-07-14 11:59:00,80.4,80.0,30.01,North,359,2.3,12.0,99,0.00,,SKC,0.00,VWS V14.01,2013-07-14 15:59:00,
2013-07-14 12:00:00,80.4,80.1,30.01,SSW,211,4.8,12.0,99,0.00,,SKC,0.00,VWS V14.01,2013-07-14 16:00:00,
2013-07-14 12:01:00,80.4,80.1,30.01,SSW,208,5.3,12.0,99,0.00,,SKC,0.00,VWS V14.01,2013-07-14 16:01:00,
2013-07-14 12:04:00,80.4,80.0,30.02,South,180,7.3,13.2,99,0.00,,SKC,0.00,VWS V14.01,2013-07-14 16:04:00,
2013-07-14 12:05:00,80.3,79.9,30.02,SW,224,3.2,13.2,99,0.00,,SKC,0.00,VWS V14.01,2013-07-14 16:05:00,
2013-07-14 12:06:00,80.3,80.0,30.02,South,179,6.7,13.2,99,0.00,,SKC,0.00,VWS V14.01,2013-07-14 16:06:00,
2013-07-14 12:09:00,80.6,80.4,30.02,North,359,0.0,13.2,99,0.00,,SKC,0.00,VWS V14.01,2013-07-14 16:09:00,
2013-07-14 12:10:00,80.7,80.5,30.02,North,359,0.0,13.2,99,0.00,,SKC,0.00,VWS V14.01,2013-07-14 16:10:00,
2013-07-14 12:12:00,80.8,80.5,30.02,South,176,9.3,13.2,99,0.00,,SKC,0.00,VWS V14.01,2013-07-14 16:12:00,
2013-07-14 12:14:00,80.8,80.4,30.02,SSW,204,3.4,13.2,99,0.00,,SKC,0.00,VWS V14.01,2013-07-14 16:14:00,
2013-07-14 12:15:00,80.8,80.3,30.02,South,180,9.1,13.2,98,0.00,,SKC,0.00,VWS V14.01,2013-07-14 16:15:00,
2013-07-14 12:16:00,80.7,80.3,30.02,SSW,204,3.9,13.2,99,0.00,,SKC,0.00,VWS V14.01,2013-07-14 16:16:00,
2013-07-14 12:17:00,80.7,80.4,30.02,South,174,4.9,13.2,99,0.00,,SKC,0.00,VWS V14.01,2013-07-14 16:17:00,
2013-07-14 12:19:00,80.8,80.5,30.02,SSW,202,8.3,13.2,99,0.00,,SKC,0.00,VWS V14.01,2013-07-14 16:19:00,
2013-07-14 12:20:00,80.7,80.3,30.02,SSW,204,4.3,13.2,99,0.00,,SKC,0.00,VWS V14.01,2013-07-14 16:20:00,
2013-07-14 12:21:00,80.8,80.5,30.02,SSE,158,0.0,13.2,99,0.00,,SKC,0.00,VWS V14.01,2013-07-14 16:21:00,
2013-07-14 12:22:00,80.9,80.7,30.02,South,176,8.0,13.2,99,0.00,,SKC,0.00,VWS V14.01,2013-07-14 16:22:00,
2013-07-14 12:24:00,81.0,80.6,30.02,SW,217,8.1,13.2,99,0.00,,SKC,0.00,VWS V14.01,2013-07-14 16:24:00,
2013-07-14 12:25:00,80.9,80.4,30.02,SSW,201,7.0,13.2,98,0.00,,SKC,0.00,VWS V14.01,2013-07-14 16:25:00,
2013-07-14 12:26:00,80.9,80.3,30.02,SSW,194,4.4,13.2,98,0.00,,SKC,0.00,VWS V14.01,2013-07-14 16:26:00,
2013-07-14 12:27:00,80.8,80.2,30.02,South,190,6.7,13.2,98,0.00,,SKC,0.00,VWS V14.01,2013-07-14 16:27:00,
2013-07-14 12:30:00,81.1,80.5,30.02,SSE,165,4.7,13.2,98,0.00,,SKC,0.00,VWS V14.01,2013-07-14 16:30:00,
2013-07-14 12:31:00,81.4,80.7,30.02,South,187,5.6,13.2,98,0.00,,SKC,0.00,VWS V14.01,2013-07-14 16:31:00,
2013-07-14 12:32:00,81.4,80.7,30.02,South,180,4.7,13.2,98,0.00,,SKC,0.00,VWS V14.01,2013-07-14 16:32:00,
2013-07-14 12:35:00,81.3,80.6,30.02,SSW,208,4.9,13.2,98,0.00,,SKC,0.00,VWS V14.01,2013-07-14 16:35:00,
2013-07-14 12:36:00,81.4,80.8,30.02,SSW,194,4.5,13.2,98,0.00,,SKC,0.00,VWS V14.01,2013-07-14 16:36:00,
2013-07-14 12:37:00,81.4,80.8,30.02,SE,143,10.9,13.2,98,0.00,,SKC,0.00,VWS V14.01,2013-07-14 16:37:00,
2013-07-14 12:40:00,81.4,80.8,30.02,SSE,166,9.3,13.2,98,0.00,,SKC,0.00,VWS V14.01,2013-07-14 16:40:00,
2013-07-14 12:41:00,81.6,81.0,30.02,South,172,5.0,13.2,98,0.00,,SKC,0.00,VWS V14.01,2013-07-14 16:41:00,
2013-07-14 12:42:00,81.5,80.8,30.02,South,172,7.0,13.2,98,0.00,,SKC,0.00,VWS V14.01,2013-07-14 16:42:00,
2013-07-14 12:46:00,81.6,80.6,30.02,South,169,5.8,13.2,97,0.00,,SKC,0.00,VWS V14.01,2013-07-14 16:46:00,
2013-07-14 12:47:00,81.6,80.5,30.02,North,359,4.4,13.2,97,0.00,,SKC,0.00,VWS V14.01,2013-07-14 16:47:00,
2013-07-14 12:51:00,81.4,80.5,30.02,South,180,9.2,13.2,97,0.00,,SKC,0.00,VWS V14.01,2013-07-14 16:51:00,
2013-07-14 12:52:00,81.4,80.5,30.02,South,184,5.7,13.2,97,0.00,,SKC,0.00,VWS V14.01,2013-07-14 16:52:00,
2013-07-14 12:56:00,81.4,80.7,30.02,South,176,7.1,13.2,98,0.00,,SKC,0.00,VWS V14.01,2013-07-14 16:56:00,
2013-07-14 12:57:00,81.3,80.7,30.02,SW,215,3.2,13.2,98,0.00,,SKC,0.00,VWS V14.01,2013-07-14 16:57:00,
2013-07-14 12:58:00,81.3,80.7,30.02,SW,215,4.8,13.2,98,0.00,,SKC,0.00,VWS V14.01,2013-07-14 16:58:00,
2013-07-14 13:01:00,81.5,80.7,30.02,South,169,2.1,13.2,98,0.00,,SKC,0.00,VWS V14.01,2013-07-14 17:01:00,
2013-07-14 13:02:00,81.5,80.7,30.02,South,180,7.4,13.2,98,0.00,,SKC,0.00,VWS V14.01,2013-07-14 17:02:00,
2013-07-14 13:03:00,81.4,80.7,30.02,North,359,0.0,13.2,98,0.00,,SKC,0.00,VWS V14.01,2013-07-14 17:03:00,
2013-07-14 13:06:00,81.6,80.9,30.02,SSW,198,4.0,13.2,98,0.00,,SKC,0.00,VWS V14.01,2013-07-14 17:06:00,
2013-07-14 13:07:00,81.6,80.9,30.02,SSW,208,2.6,13.2,98,0.00,,SKC,0.00,VWS V14.01,2013-07-14 17:07:00,
2013-07-14 13:08:00,81.7,81.1,30.02,SSE,149,9.3,13.2,98,0.00,,SKC,0.00,VWS V14.01,2013-07-14 17:08:00,
2013-07-14 13:11:00,81.8,80.9,30.02,South,180,3.5,13.2,97,0.00,,SKC,0.00,VWS V14.01,2013-07-14 17:11:00,
2013-07-14 13:12:00,81.7,80.8,30.02,SSE,167,11.6,13.2,97,0.00,,SKC,0.00,VWS V14.01,2013-07-14 17:12:00,
2013-07-14 13:13:00,81.7,80.8,30.02,North,359,0.0,13.2,97,0.00,,SKC,0.00,VWS V14.01,2013-07-14 17:13:00,
2013-07-14 13:14:00,81.6,80.8,30.02,North,359,0.0,13.2,97,0.00,,SKC,0.00,VWS V14.01,2013-07-14 17:14:00,
2013-07-14 13:17:00,81.6,80.8,30.02,South,180,5.1,13.2,97,0.00,,SKC,0.00,VWS V14.01,2013-07-14 17:17:00,
2013-07-14 13:18:00,81.7,80.9,30.01,South,181,7.8,13.2,97,0.00,,SKC,0.00,VWS V14.01,2013-07-14 17:18:00,
2013-07-14 13:19:00,81.7,81.0,30.01,SW,229,4.5,13.2,98,0.00,,SKC,0.00,VWS V14.01,2013-07-14 17:19:00,
2013-07-14 13:22:00,82.0,81.3,30.01,SSE,156,9.8,13.2,98,0.00,,SKC,0.00,VWS V14.01,2013-07-14 17:22:00,
2013-07-14 13:23:00,82.1,81.2,30.01,SSW,194,7.5,13.2,97,0.00,,SKC,0.00,VWS V14.01,2013-07-14 17:23:00,
2013-07-14 13:24:00,82.1,81.2,30.01,South,191,0.0,13.2,97,0.00,,SKC,0.00,VWS V14.01,2013-07-14 17:24:00,
2013-07-14 13:27:00,82.0,81.1,30.01,SSW,207,6.3,14.2,97,0.00,,SKC,0.00,VWS V14.01,2013-07-14 17:27:00,
2013-07-14 13:28:00,82.0,81.1,30.01,SSW,193,8.5,14.2,97,0.00,,SKC,0.00,VWS V14.01,2013-07-14 17:28:00,
2013-07-14 13:29:00,82.0,81.1,30.01,SSW,198,5.5,14.2,97,0.00,,SKC,0.00,VWS V14.01,2013-07-14 17:29:00,
2013-07-14 13:32:00,81.8,80.9,30.01,SSW,201,3.4,14.2,97,0.00,,SKC,0.00,VWS V14.01,2013-07-14 17:32:00,
2013-07-14 13:33:00,82.0,81.2,30.01,SSW,204,0.0,14.2,97,0.00,,SKC,0.00,VWS V14.01,2013-07-14 17:33:00,
2013-07-14 13:34:00,81.9,81.1,30.01,SSW,204,0.0,14.2,97,0.00,,SKC,0.00,VWS V14.01,2013-07-14 17:34:00,
2013-07-14 13:37:00,82.1,81.2,30.01,North,359,0.2,14.2,97,0.00,,SKC,0.00,VWS V14.01,2013-07-14 17:37:00,
2013-07-14 13:38:00,82.1,81.2,30.01,South,188,6.3,14.2,97,0.00,,SKC,0.00,VWS V14.01,2013-07-14 17:38:00,
2013-07-14 13:39:00,82.1,81.2,30.01,South,190,7.5,14.2,97,0.00,,SKC,0.00,VWS V14.01,2013-07-14 17:39:00,
2013-07-14 13:42:00,82.0,81.2,30.01,North,359,0.9,14.2,98,0.00,,SKC,0.00,VWS V14.01,2013-07-14 17:42:00,
2013-07-14 13:43:00,81.9,81.2,30.01,North,359,0.0,14.2,98,0.00,,SKC,0.00,VWS V14.01,2013-07-14 17:43:00,
2013-07-14 13:44:00,82.1,81.4,30.01,North,359,0.0,14.2,98,0.00,,SKC,0.00,VWS V14.01,2013-07-14 17:44:00,
2013-07-14 13:47:00,82.2,81.5,30.01,South,186,7.9,14.2,97,0.00,,SKC,0.00,VWS V14.01,2013-07-14 17:47:00,
2013-07-14 13:48:00,82.3,81.5,30.01,SW,226,5.4,14.2,97,0.00,,SKC,0.00,VWS V14.01,2013-07-14 17:48:00,
2013-07-14 13:49:00,82.4,81.6,30.01,SW,231,5.1,14.2,98,0.00,,SKC,0.00,VWS V14.01,2013-07-14 17:49:00,
2013-07-14 13:52:00,82.2,81.5,30.01,SSE,167,7.0,14.2,98,0.00,,SKC,0.00,VWS V14.01,2013-07-14 17:52:00,
2013-07-14 13:53:00,82.2,81.5,30.02,SSW,197,6.2,14.2,98,0.00,,SKC,0.00,VWS V14.01,2013-07-14 17:53:00,
2013-07-14 13:54:00,82.2,81.6,30.02,SSE,166,4.2,14.2,98,0.00,,SKC,0.00,VWS V14.01,2013-07-14 17:54:00,
2013-07-14 13:57:00,82.3,81.6,30.02,South,188,9.0,14.2,98,0.00,,SKC,0.00,VWS V14.01,2013-07-14 17:57:00,
2013-07-14 13:58:00,82.1,81.3,30.02,South,176,4.1,14.2,98,0.00,,SKC,0.00,VWS V14.01,2013-07-14 17:58:00,
2013-07-14 13:59:00,82.3,81.6,30.02,SW,214,4.2,14.2,98,0.00,,SKC,0.00,VWS V14.01,2013-07-14 17:59:00,
2013-07-14 14:02:00,82.3,81.5,30.02,SSW,204,0.8,14.2,97,0.00,,SKC,0.00,VWS V14.01,2013-07-14 18:02:00,
2013-07-14 14:03:00,82.3,81.5,30.02,South,170,8.1,14.2,97,0.00,,SKC,0.00,VWS V14.01,2013-07-14 18:03:00,
2013-07-14 14:04:00,82.3,81.5,30.01,South,177,2.3,14.2,97,0.00,,SKC,0.00,VWS V14.01,2013-07-14 18:04:00,
2013-07-14 14:05:00,82.1,81.4,30.01,South,180,6.2,14.2,98,0.00,,SKC,0.00,VWS V14.01,2013-07-14 18:05:00,
2013-07-14 14:07:00,82.1,81.3,30.01,South,184,2.6,14.2,98,0.00,,SKC,0.00,VWS V14.01,2013-07-14 18:07:00,
2013-07-14 14:08:00,82.3,81.6,30.01,South,180,0.4,14.2,98,0.00,,SKC,0.00,VWS V14.01,2013-07-14 18:08:00,
2013-07-14 14:09:00,82.3,81.4,30.01,South,180,0.0,14.2,97,0.00,,SKC,0.00,VWS V14.01,2013-07-14 18:09:00,
2013-07-14 14:10:00,82.5,81.7,30.01,South,180,0.0,14.2,97,0.00,,SKC,0.00,VWS V14.01,2013-07-14 18:10:00,
2013-07-14 14:12:00,82.7,81.6,30.02,SSE,166,0.0,14.2,97,0.00,,SKC,0.00,VWS V14.01,2013-07-14 18:12:00,
2013-07-14 14:13:00,82.7,81.6,30.02,North,359,7.1,14.2,97,0.00,,SKC,0.00,VWS V14.01,2013-07-14 18:13:00,
2013-07-14 14:14:00,82.7,81.5,30.02,North,359,1.4,14.2,96,0.00,,SKC,0.00,VWS V14.01,2013-07-14 18:14:00,
2013-07-14 14:16:00,82.7,81.5,30.02,SSW,212,4.7,14.2,96,0.00,,SKC,0.00,VWS V14.01,2013-07-14 18:16:00,
2013-07-14 14:17:00,82.9,81.8,30.02,South,186,7.0,14.2,96,0.00,,SKC,0.00,VWS V14.01,2013-07-14 18:17:00,
2013-07-14 14:18:00,82.9,81.9,30.02,South,187,2.9,14.2,97,0.00,,SKC,0.00,VWS V14.01,2013-07-14 18:18:00,
2013-07-14 14:19:00,82.9,81.7,30.02,SW,215,0.0,14.2,96,0.00,,SKC,0.00,VWS V14.01,2013-07-14 18:19:00,
2013-07-14 14:21:00,82.8,81.8,30.02,South,186,3.9,14.2,97,0.00,,SKC,0.00,VWS V14.01,2013-07-14 18:21:00,
2013-07-14 14:22:00,82.8,81.7,30.02,SSW,208,0.0,14.2,97,0.00,,SKC,0.00,VWS V14.01,2013-07-14 18:22:00,
2013-07-14 14:23:00,82.8,81.6,30.02,SSW,193,0.0,14.2,96,0.00,,SKC,0.00,VWS V14.01,2013-07-14 18:23:00,
2013-07-14 14:24:00,82.7,81.5,30.02,SSE,163,7.6,14.2,96,0.00,,SKC,0.00,VWS V14.01,2013-07-14 18:24:00,
2013-07-14 14:25:00,82.7,81.4,30.02,South,181,7.3,14.2,96,0.00,,SKC,0.00,VWS V14.01,2013-07-14 18:25:00,
2013-07-14 14:26:00,82.6,81.5,30.02,SW,224,4.8,14.2,96,0.00,,SKC,0.00,VWS V14.01,2013-07-14 18:26:00,
2013-07-14 14:28:00,82.7,81.7,30.01,SSW,195,7.9,14.2,97,0.00,,SKC,0.00,VWS V14.01,2013-07-14 18:28:00,
2013-07-14 14:29:00,82.7,81.6,30.01,South,173,5.7,14.2,97,0.00,,SKC,0.00,VWS V14.01,2013-07-14 18:29:00,
2013-07-14 14:30:00,82.7,81.6,30.01,SSW,201,5.2,14.2,96,0.00,,SKC,0.00,VWS V14.01,2013-07-14 18:30:00,
2013-07-14 14:31:00,82.7,81.6,30.01,South,173,2.7,14.2,96,0.00,,SKC,0.00,VWS V14.01,2013-07-14 18:31:00,
2013-07-14 14:33:00,82.7,81.6,30.01,SW,229,6.6,14.2,96,0.00,,SKC,0.00,VWS V14.01,2013-07-14 18:33:00,
2013-07-14 14:34:00,82.5,81.5,30.01,SSW,197,4.3,14.2,97,0.00,,SKC,0.00,VWS V14.01,2013-07-14 18:34:00,
2013-07-14 14:35:00,82.7,81.7,30.01,SSW,194,2.7,14.2,97,0.00,,SKC,0.00,VWS V14.01,2013-07-14 18:35:00,
2013-07-14 14:36:00,82.7,81.8,30.01,SSW,193,4.2,14.2,97,0.00,,SKC,0.00,VWS V14.01,2013-07-14 18:36:00,
2013-07-14 14:38:00,82.8,81.9,30.01,SSE,159,0.0,14.2,97,0.00,,SKC,0.00,VWS V14.01,2013-07-14 18:38:00,
2013-07-14 14:39:00,82.8,81.7,30.01,SSW,198,0.2,14.2,96,0.00,,SKC,0.00,VWS V14.01,2013-07-14 18:39:00,
2013-07-14 14:40:00,82.8,81.7,30.01,SSW,193,7.8,14.2,96,0.00,,SKC,0.00,VWS V14.01,2013-07-14 18:40:00,
2013-07-14 14:41:00,82.7,81.6,30.01,North,359,0.0,14.2,96,0.00,,SKC,0.00,VWS V14.01,2013-07-14 18:41:00,
2013-07-14 14:43:00,82.7,81.7,30.01,North,359,0.0,14.2,97,0.00,,SKC,0.00,VWS V14.01,2013-07-14 18:43:00,
2013-07-14 14:45:00,82.8,81.9,30.01,North,359,0.0,14.2,97,0.00,,SKC,0.00,VWS V14.01,2013-07-14 18:45:00,
2013-07-14 14:46:00,82.8,81.7,30.01,SW,225,2.1,14.2,97,0.00,,SKC,0.00,VWS V14.01,2013-07-14 18:46:00,
2013-07-14 14:48:00,82.5,81.4,30.01,SW,225,0.0,14.2,96,0.00,,SKC,0.00,VWS V14.01,2013-07-14 18:48:00,
2013-07-14 14:50:00,82.2,81.3,30.01,North,359,0.4,14.2,97,0.00,,SKC,0.00,VWS V14.01,2013-07-14 18:50:00,
2013-07-14 14:51:00,82.3,81.5,30.01,SSW,210,4.5,14.2,97,0.00,,SKC,0.00,VWS V14.01,2013-07-14 18:51:00,
2013-07-14 14:53:00,82.4,81.6,30.01,SSW,208,0.0,14.2,98,0.00,,SKC,0.00,VWS V14.01,2013-07-14 18:53:00,
2013-07-14 14:55:00,82.4,81.3,30.01,SW,231,5.7,14.2,96,0.00,,SKC,0.00,VWS V14.01,2013-07-14 18:55:00,
2013-07-14 14:57:00,82.5,81.6,30.01,SW,225,0.4,14.2,97,0.00,,SKC,0.00,VWS V14.01,2013-07-14 18:57:00,
2013-07-14 14:58:00,82.4,81.2,30.01,SSW,211,0.6,14.2,96,0.00,,SKC,0.00,VWS V14.01,2013-07-14 18:58:00,
2013-07-14 15:00:00,82.4,81.4,30.01,SW,224,3.9,14.2,97,0.00,,SKC,0.00,VWS V14.01,2013-07-14 19:00:00,
2013-07-14 15:02:00,82.4,81.3,30.01,North,359,5.0,14.2,96,0.00,,SKC,0.00,VWS V14.01,2013-07-14 19:02:00,
2013-07-14 15:03:00,82.4,81.5,30.01,South,176,0.3,14.2,97,0.00,,SKC,0.00,VWS V14.01,2013-07-14 19:03:00,
2013-07-14 15:05:00,82.1,81.2,30.01,SSW,197,6.2,14.2,97,0.00,,SKC,0.00,VWS V14.01,2013-07-14 19:05:00,
2013-07-14 15:07:00,81.9,81.1,30.01,SW,229,5.8,14.2,97,0.00,,SKC,0.00,VWS V14.01,2013-07-14 19:07:00,
2013-07-14 15:08:00,81.8,81.2,30.01,North,359,2.4,14.2,98,0.00,,SKC,0.00,VWS V14.01,2013-07-14 19:08:00,
2013-07-14 15:10:00,81.7,81.2,30.01,SSW,205,7.1,14.2,98,0.00,,SKC,0.00,VWS V14.01,2013-07-14 19:10:00,
2013-07-14 15:12:00,81.9,81.3,30.01,South,187,6.2,14.2,98,0.00,,SKC,0.00,VWS V14.01,2013-07-14 19:12:00,
2013-07-14 15:14:00,81.8,80.9,30.01,North,359,0.0,14.2,97,0.00,,SKC,0.00,VWS V14.01,2013-07-14 19:14:00,
2013-07-14 15:15:00,81.7,81.0,30.01,North,359,0.0,14.2,98,0.00,,SKC,0.00,VWS V14.01,2013-07-14 19:15:00,
2013-07-14 15:16:00,81.7,81.0,30.01,North,359,0.0,14.2,98,0.00,,SKC,0.00,VWS V14.01,2013-07-14 19:16:00,
2013-07-14 15:17:00,81.8,81.2,30.01,South,176,0.0,14.2,98,0.00,,SKC,0.00,VWS V14.01,2013-07-14 19:17:00,
2013-07-14 15:19:00,81.9,81.1,30.01,North,359,0.0,14.2,97,0.00,,SKC,0.00,VWS V14.01,2013-07-14 19:19:00,
2013-07-14 15:20:00,81.8,81.0,30.01,North,359,0.0,14.2,97,0.00,,SKC,0.00,VWS V14.01,2013-07-14 19:20:00,
2013-07-14 15:21:00,81.9,81.2,30.01,North,359,2.5,14.2,98,0.00,,SKC,0.00,VWS V14.01,2013-07-14 19:21:00,
2013-07-14 15:22:00,82.0,81.2,30.01,North,359,1.8,14.2,97,0.00,,SKC,0.00,VWS V14.01,2013-07-14 19:22:00,
2013-07-14 15:24:00,81.9,81.2,30.01,SW,225,6.6,14.2,98,0.00,,SKC,0.00,VWS V14.01,2013-07-14 19:24:00,
2013-07-14 15:25:00,82.1,81.4,30.01,North,359,9.8,14.2,98,0.00,,SKC,0.00,VWS V14.01,2013-07-14 19:25:00,
2013-07-14 15:26:00,82.1,81.4,30.01,North,359,0.9,14.2,98,0.00,,SKC,0.00,VWS V14.01,2013-07-14 19:26:00,
2013-07-14 15:27:00,82.1,81.5,30.01,SSW,212,1.6,14.2,98,0.00,,SKC,0.00,VWS V14.01,2013-07-14 19:27:00,
2013-07-14 15:29:00,82.3,81.5,30.01,SW,215,3.1,14.2,97,0.00,,SKC,0.00,VWS V14.01,2013-07-14 19:29:00,
2013-07-14 15:30:00,82.4,81.6,30.00,SSW,212,0.2,14.2,97,0.00,,SKC,0.00,VWS V14.01,2013-07-14 19:30:00,
2013-07-14 15:31:00,82.5,81.8,30.00,SSW,212,0.0,14.2,98,0.00,,SKC,0.00,VWS V14.01,2013-07-14 19:31:00,
2013-07-14 15:32:00,82.5,81.4,30.01,SSW,193,8.6,14.2,96,0.00,,SKC,0.00,VWS V14.01,2013-07-14 19:32:00,
2013-07-14 15:34:00,82.6,81.7,30.01,North,359,1.8,14.2,97,0.00,,SKC,0.00,VWS V14.01,2013-07-14 19:34:00,
2013-07-14 15:35:00,82.5,81.7,30.01,SW,224,6.6,14.2,97,0.00,,SKC,0.00,VWS V14.01,2013-07-14 19:35:00,
2013-07-14 15:36:00,82.5,81.6,30.00,WSW,246,0.0,14.2,97,0.00,,SKC,0.00,VWS V14.01,2013-07-14 19:36:00,
2013-07-14 15:37:00,82.6,81.8,30.00,SSW,204,1.0,14.2,97,0.00,,SKC,0.00,VWS V14.01,2013-07-14 19:37:00,
2013-07-14 15:39:00,82.8,81.9,30.00,SW,233,8.7,14.2,97,0.00,,SKC,0.00,VWS V14.01,2013-07-14 19:39:00,
2013-07-14 15:41:00,82.8,81.7,30.00,SSW,207,9.1,14.2,96,0.00,,SKC,0.00,VWS V14.01,2013-07-14 19:41:00,
2013-07-14 15:43:00,82.6,81.5,30.00,South,177,9.6,14.2,96,0.00,,SKC,0.00,VWS V14.01,2013-07-14 19:43:00,
2013-07-14 15:44:00,82.7,81.6,30.00,North,359,9.6,14.2,97,0.00,,SKC,0.00,VWS V14.01,2013-07-14 19:44:00,
2013-07-14 15:46:00,82.6,81.4,30.00,SW,229,0.0,14.2,96,0.00,,SKC,0.00,VWS V14.01,2013-07-14 19:46:00,
2013-07-14 15:48:00,82.6,81.7,30.00,South,190,4.8,14.2,97,0.00,,SKC,0.00,VWS V14.01,2013-07-14 19:48:00,
2013-07-14 15:50:00,82.6,81.6,30.00,South,179,5.7,14.2,97,0.00,,SKC,0.00,VWS V14.01,2013-07-14 19:50:00,
2013-07-14 15:51:00,82.6,81.8,30.00,South,179,0.6,14.2,97,0.00,,SKC,0.00,VWS V14.01,2013-07-14 19:51:00,
2013-07-14 15:53:00,82.6,81.7,30.00,SW,219,8.4,14.2,97,0.00,,SKC,0.00,VWS V14.01,2013-07-14 19:53:00,
2013-07-14 15:55:00,82.5,81.7,30.00,South,188,4.6,14.2,97,0.00,,SKC,0.00,VWS V14.01,2013-07-14 19:55:00,
2013-07-14 15:56:00,82.6,81.8,30.00,SSW,198,4.0,14.2,97,0.00,,SKC,0.00,VWS V14.01,2013-07-14 19:56:00,
2013-07-14 15:58:00,82.7,82.0,30.00,SW,217,0.0,14.2,98,0.00,,SKC,0.00,VWS V14.01,2013-07-14 19:58:00,
2013-07-14 16:00:00,82.8,81.9,30.00,South,187,0.5,14.2,97,0.00,,SKC,0.00,VWS V14.01,2013-07-14 20:00:00,
2013-07-14 16:01:00,82.7,81.6,30.00,South,188,5.3,14.2,97,0.00,,SKC,0.00,VWS V14.01,2013-07-14 20:01:00,
2013-07-14 16:02:00,82.7,81.7,30.00,South,188,5.3,14.2,97,0.00,,SKC,0.00,VWS V14.01,2013-07-14 20:02:00,
2013-07-14 16:03:00,82.6,81.8,29.99,SSW,195,4.2,14.2,98,0.00,,SKC,0.00,VWS V14.01,2013-07-14 20:03:00,
2013-07-14 16:06:00,82.6,81.6,29.99,WSW,248,2.1,14.2,97,0.00,,SKC,0.00,VWS V14.01,2013-07-14 20:06:00,
2013-07-14 16:07:00,82.5,81.6,29.99,SSW,198,5.4,14.2,97,0.00,,SKC,0.00,VWS V14.01,2013-07-14 20:07:00,
2013-07-14 16:08:00,82.6,81.6,29.99,North,359,0.0,14.2,97,0.00,,SKC,0.00,VWS V14.01,2013-07-14 20:08:00,
2013-07-14 16:11:00,82.4,81.5,29.99,SSW,202,1.7,14.2,98,0.00,,SKC,0.00,VWS V14.01,2013-07-14 20:11:00,
2013-07-14 16:12:00,82.4,81.6,29.99,North,359,0.0,14.2,98,0.00,,SKC,0.00,VWS V14.01,2013-07-14 20:12:00,
2013-07-14 16:13:00,82.4,81.5,29.99,North,359,0.0,14.2,97,0.00,,SKC,0.00,VWS V14.01,2013-07-14 20:13:00,
2013-07-14 16:16:00,82.7,81.9,30.00,North,359,0.0,14.2,97,0.00,,SKC,0.00,VWS V14.01,2013-07-14 20:16:00,
2013-07-14 16:17:00,82.9,81.9,29.99,North,359,0.0,14.2,97,0.00,,SKC,0.00,VWS V14.01,2013-07-14 20:17:00,
2013-07-14 16:18:00,83.0,82.0,30.00,North,359,0.0,14.2,97,0.00,,SKC,0.00,VWS V14.01,2013-07-14 20:18:00,
2013-07-14 16:21:00,83.0,81.8,29.99,North,359,0.0,14.2,96,0.00,,SKC,0.00,VWS V14.01,2013-07-14 20:21:00,
2013-07-14 16:22:00,82.9,81.5,29.99,North,359,0.0,14.2,96,0.00,,SKC,0.00,VWS V14.01,2013-07-14 20:22:00,
2013-07-14 16:23:00,82.9,81.7,29.99,North,359,0.0,14.2,96,0.00,,SKC,0.00,VWS V14.01,2013-07-14 20:23:00,
2013-07-14 16:26:00,83.3,82.0,29.99,SW,226,0.0,14.2,96,0.00,,SKC,0.00,VWS V14.01,2013-07-14 20:26:00,
2013-07-14 16:27:00,83.4,82.1,29.99,SW,226,0.0,14.2,96,0.00,,SKC,0.00,VWS V14.01,2013-07-14 20:27:00,
2013-07-14 16:28:00,83.2,81.8,29.99,South,190,4.7,14.2,96,0.00,,SKC,0.00,VWS V14.01,2013-07-14 20:28:00,
2013-07-14 16:32:00,83.3,81.9,29.99,South,170,8.9,14.2,96,0.00,,SKC,0.00,VWS V14.01,2013-07-14 20:32:00,
2013-07-14 16:33:00,83.3,82.0,29.99,SSW,204,0.2,14.2,96,0.00,,SKC,0.00,VWS V14.01,2013-07-14 20:33:00,
2013-07-14 16:37:00,83.0,81.9,29.99,SSW,195,0.0,14.2,96,0.00,,SKC,0.00,VWS V14.01,2013-07-14 20:37:00,
2013-07-14 16:38:00,83.2,82.1,29.98,SSE,166,2.0,14.2,97,0.00,,SKC,0.00,VWS V14.01,2013-07-14 20:38:00,
2013-07-14 16:42:00,83.1,82.2,29.98,South,179,7.3,14.2,97,0.00,,SKC,0.00,VWS V14.01,2013-07-14 20:42:00,
2013-07-14 16:43:00,83.1,82.0,29.98,SW,219,5.3,14.2,96,0.00,,SKC,0.00,VWS V14.01,2013-07-14 20:43:00,
2013-07-14 16:44:00,83.0,81.8,29.98,North,359,0.0,14.2,96,0.00,,SKC,0.00,VWS V14.01,2013-07-14 20:44:00,
2013-07-14 16:47:00,83.1,82.1,29.98,North,359,0.0,14.2,97,0.00,,SKC,0.00,VWS V14.01,2013-07-14 20:47:00,
2013-07-14 16:48:00,83.0,82.0,29.98,North,359,0.0,14.2,97,0.00,,SKC,0.00,VWS V14.01,2013-07-14 20:48:00,
2013-07-14 16:49:00,83.0,82.0,29.98,North,359,0.0,14.2,97,0.00,,SKC,0.00,VWS V14.01,2013-07-14 20:49:00,
2013-07-14 16:52:00,82.8,81.6,29.98,South,187,0.0,14.2,96,0.00,,SKC,0.00,VWS V14.01,2013-07-14 20:52:00,
2013-07-14 16:53:00,82.7,81.6,29.98,South,187,0.7,14.2,96,0.00,,SKC,0.00,VWS V14.01,2013-07-14 20:53:00,
2013-07-14 16:54:00,82.7,81.8,29.98,North,359,0.0,14.2,97,0.00,,SKC,0.00,VWS V14.01,2013-07-14 20:54:00,
2013-07-14 16:57:00,82.6,81.5,29.98,North,359,0.0,14.2,97,0.00,,SKC,0.00,VWS V14.01,2013-07-14 20:57:00,
2013-07-14 16:58:00,82.5,81.6,29.98,North,359,0.0,14.2,97,0.00,,SKC,0.00,VWS V14.01,2013-07-14 20:58:00,
2013-07-14 16:59:00,82.5,81.6,29.98,North,359,0.0,14.2,97,0.00,,SKC,0.00,VWS V14.01,2013-07-14 20:59:00,
2013-07-14 17:03:00,82.5,81.7,29.98,North,359,0.4,14.2,98,0.00,,SKC,0.00,VWS V14.01,2013-07-14 21:03:00,
2013-07-14 17:04:00,82.5,81.7,29.98,North,359,0.0,14.2,98,0.00,,SKC,0.00,VWS V14.01,2013-07-14 21:04:00,
2013-07-14 17:08:00,82.7,81.9,29.98,SW,215,0.0,14.2,97,0.00,,SKC,0.00,VWS V14.01,2013-07-14 21:08:00,
2013-07-14 17:09:00,82.8,81.9,29.98,SW,225,0.0,14.2,97,0.00,,SKC,0.00,VWS V14.01,2013-07-14 21:09:00,
2013-07-14 17:13:00,82.7,81.7,29.98,North,359,0.0,14.2,97,0.00,,SKC,0.00,VWS V14.01,2013-07-14 21:13:00,
2013-07-14 17:14:00,82.6,81.7,29.98,North,359,0.0,14.2,97,0.00,,SKC,0.00,VWS V14.01,2013-07-14 21:14:00,
2013-07-14 17:18:00,82.9,82.1,29.98,SW,232,0.0,14.2,97,0.00,,SKC,0.00,VWS V14.01,2013-07-14 21:18:00,
2013-07-14 17:19:00,82.8,81.9,29.98,North,359,0.6,14.2,97,0.00,,SKC,0.00,VWS V14.01,2013-07-14 21:19:00,
2013-07-14 17:20:00,82.9,82.0,29.98,North,359,0.0,14.2,97,0.00,,SKC,0.00,VWS V14.01,2013-07-14 21:20:00,
2013-07-14 17:23:00,83.1,82.3,29.98,North,359,0.0,14.2,98,0.00,,SKC,0.00,VWS V14.01,2013-07-14 21:23:00,
2013-07-14 17:24:00,83.0,82.1,29.98,SW,224,0.0,14.2,97,0.00,,SKC,0.00,VWS V14.01,2013-07-14 21:24:00,
2013-07-14 17:25:00,83.0,82.2,29.98,SW,224,0.0,14.2,97,0.00,,SKC,0.00,VWS V14.01,2013-07-14 21:25:00,
2013-07-14 17:28:00,82.6,81.7,29.97,SW,224,0.0,14.2,97,0.00,,SKC,0.00,VWS V14.01,2013-07-14 21:28:00,
2013-07-14 17:29:00,82.7,81.9,29.97,SW,224,0.0,14.2,97,0.00,,SKC,0.00,VWS V14.01,2013-07-14 21:29:00,
2013-07-14 17:30:00,82.7,81.8,29.97,SW,224,0.0,14.2,97,0.00,,SKC,0.00,VWS V14.01,2013-07-14 21:30:00,
2013-07-14 17:33:00,82.4,81.6,29.98,SW,224,0.0,14.2,97,0.00,,SKC,0.00,VWS V14.01,2013-07-14 21:33:00,
2013-07-14 17:34:00,82.5,81.8,29.98,SW,224,0.0,14.2,97,0.00,,SKC,0.00,VWS V14.01,2013-07-14 21:34:00,
2013-07-14 17:35:00,82.5,81.6,29.98,SW,224,0.0,14.2,97,0.00,,SKC,0.00,VWS V14.01,2013-07-14 21:35:00,
2013-07-14 17:38:00,82.5,81.5,29.98,SW,224,0.0,14.2,97,0.00,,SKC,0.00,VWS V14.01,2013-07-14 21:38:00,
2013-07-14 17:39:00,82.4,81.7,29.98,SW,224,0.0,14.2,98,0.00,,SKC,0.00,VWS V14.01,2013-07-14 21:39:00,
2013-07-14 17:40:00,82.4,81.5,29.98,SW,224,0.0,14.2,97,0.00,,SKC,0.00,VWS V14.01,2013-07-14 21:40:00,
2013-07-14 17:43:00,82.4,81.6,29.98,SW,224,0.0,14.2,97,0.00,,SKC,0.00,VWS V14.01,2013-07-14 21:43:00,
2013-07-14 17:44:00,82.4,81.6,29.98,SW,224,0.0,14.2,97,0.00,,SKC,0.00,VWS V14.01,2013-07-14 21:44:00,
2013-07-14 17:45:00,82.6,81.8,29.98,SW,224,0.0,14.2,97,0.00,,SKC,0.00,VWS V14.01,2013-07-14 21:45:00,
2013-07-14 17:48:00,82.8,81.8,29.98,SW,224,0.0,14.2,97,0.00,,SKC,0.00,VWS V14.01,2013-07-14 21:48:00,
2013-07-14 17:49:00,82.8,81.9,29.98,SW,224,0.0,14.2,97,0.00,,SKC,0.00,VWS V14.01,2013-07-14 21:49:00,
2013-07-14 17:50:00,82.8,81.9,29.98,SW,224,0.0,14.2,97,0.00,,SKC,0.00,VWS V14.01,2013-07-14 21:50:00,
2013-07-14 17:53:00,82.9,82.0,29.98,SW,224,0.0,14.2,97,0.00,,SKC,0.00,VWS V14.01,2013-07-14 21:53:00,
2013-07-14 17:54:00,82.9,82.1,29.98,SW,224,0.0,14.2,97,0.00,,SKC,0.00,VWS V14.01,2013-07-14 21:54:00,
2013-07-14 17:55:00,82.9,82.1,29.98,SW,224,0.0,14.2,98,0.00,,SKC,0.00,VWS V14.01,2013-07-14 21:55:00,
2013-07-14 17:58:00,82.9,82.1,29.98,North,359,0.2,14.2,98,0.00,,SKC,0.00,VWS V14.01,2013-07-14 21:58:00,
2013-07-14 17:59:00,82.9,82.1,29.98,North,359,0.0,14.2,97,0.00,,SKC,0.00,VWS V14.01,2013-07-14 21:59:00,
2013-07-14 18:00:00,82.8,82.0,29.98,SW,214,0.0,14.2,97,0.00,,SKC,0.00,VWS V14.01,2013-07-14 22:00:00,
2013-07-14 18:01:00,82.9,82.0,29.98,North,359,0.0,14.2,97,0.00,,SKC,0.00,VWS V14.01,2013-07-14 22:01:00,
2013-07-14 18:04:00,82.9,82.0,29.98,North,359,0.0,14.2,97,0.00,,SKC,0.00,VWS V14.01,2013-07-14 22:04:00,
2013-07-14 18:05:00,82.7,81.9,29.98,North,359,0.0,14.2,97,0.00,,SKC,0.00,VWS V14.01,2013-07-14 22:05:00,
2013-07-14 18:09:00,82.5,81.8,29.98,North,359,0.0,14.2,98,0.00,,SKC,0.00,VWS V14.01,2013-07-14 22:09:00,
2013-07-14 18:10:00,82.4,81.7,29.98,North,359,0.0,14.2,98,0.00,,SKC,0.00,VWS V14.01,2013-07-14 22:10:00,
2013-07-14 18:11:00,82.5,81.8,29.98,North,359,0.0,14.2,98,0.00,,SKC,0.00,VWS V14.01,2013-07-14 22:11:00,
2013-07-14 18:14:00,82.4,81.6,29.98,SW,232,7.0,14.2,97,0.00,,SKC,0.00,VWS V14.01,2013-07-14 22:14:00,
2013-07-14 18:15:00,82.4,81.5,29.98,SSW,204,2.1,14.2,97,0.00,,SKC,0.00,VWS V14.01,2013-07-14 22:15:00,
2013-07-14 18:16:00,82.4,81.6,29.98,SSW,204,0.0,14.2,97,0.00,,SKC,0.00,VWS V14.01,2013-07-14 22:16:00,
2013-07-14 18:19:00,82.7,81.9,29.98,North,359,0.0,14.2,97,0.00,,SKC,0.00,VWS V14.01,2013-07-14 22:19:00,
2013-07-14 18:20:00,82.8,82.0,29.98,North,359,0.0,14.2,97,0.00,,SKC,0.00,VWS V14.01,2013-07-14 22:20:00,
2013-07-14 18:21:00,82.7,81.9,29.98,SSW,212,2.1,14.2,97,0.00,,SKC,0.00,VWS V14.01,2013-07-14 22:21:00,
2013-07-14 18:25:00,83.0,82.2,29.98,North,359,0.0,14.2,98,0.00,,SKC,0.00,VWS V14.01,2013-07-14 22:25:00,
2013-07-14 18:26:00,83.0,82.1,29.98,SW,228,4.9,14.2,97,0.00,,SKC,0.00,VWS V14.01,2013-07-14 22:26:00,
2013-07-14 18:30:00,82.9,82.1,29.98,South,187,2.9,14.2,97,0.00,,SKC,0.00,VWS V14.01,2013-07-14 22:30:00,
2013-07-14 18:31:00,82.9,82.1,29.98,North,359,8.0,14.2,97,0.00,,SKC,0.00,VWS V14.01,2013-07-14 22:31:00,
2013-07-14 18:35:00,82.8,81.9,29.98,SSW,195,0.0,14.2,97,0.00,,SKC,0.00,VWS V14.01,2013-07-14 22:35:00,
2013-07-14 18:36:00,82.8,82.0,29.98,SW,229,0.5,14.2,97,0.00,,SKC,0.00,VWS V14.01,2013-07-14 22:36:00,
2013-07-14 18:37:00,82.9,82.1,29.98,SW,225,0.0,14.2,97,0.00,,SKC,0.00,VWS V14.01,2013-07-14 22:37:00,
2013-07-14 18:40:00,82.7,81.5,29.98,SW,226,7.5,14.2,97,0.00,,SKC,0.00,VWS V14.01,2013-07-14 22:40:00,
2013-07-14 18:41:00,82.6,81.5,29.98,SSW,207,5.3,14.2,97,0.00,,SKC,0.00,VWS V14.01,2013-07-14 22:41:00,
2013-07-14 18:42:00,82.5,81.5,29.97,South,187,2.3,14.2,97,0.00,,SKC,0.00,VWS V14.01,2013-07-14 22:42:00,
2013-07-14 18:45:00,82.4,81.5,29.98,South,184,4.5,14.2,97,0.00,,SKC,0.00,VWS V14.01,2013-07-14 22:45:00,
2013-07-14 18:46:00,82.4,81.7,29.98,South,184,0.0,14.2,97,0.00,,SKC,0.00,VWS V14.01,2013-07-14 22:46:00,
2013-07-14 18:47:00,82.5,81.4,29.97,SSW,194,6.3,14.2,97,0.00,,SKC,0.00,VWS V14.01,2013-07-14 22:47:00,
2013-07-14 18:51:00,82.7,81.7,29.97,North,359,0.2,14.2,97,0.00,,SKC,0.00,VWS V14.01,2013-07-14 22:51:00,
2013-07-14 18:52:00,82.6,81.6,29.97,North,359,5.0,14.2,97,0.00,,SKC,0.00,VWS V14.01,2013-07-14 22:52:00,
2013-07-14 18:56:00,82.6,81.5,29.97,SSW,212,4.3,14.2,96,0.00,,SKC,0.00,VWS V14.01,2013-07-14 22:56:00,
2013-07-14 18:57:00,82.6,81.5,29.98,SSW,207,2.9,14.2,96,0.00,,SKC,0.00,VWS V14.01,2013-07-14 22:57:00,
2013-07-14 19:01:00,82.4,81.4,29.97,SSW,211,0.0,14.2,97,0.00,,SKC,0.00,VWS V14.01,2013-07-14 23:01:00,
2013-07-14 19:02:00,82.4,81.4,29.98,North,359,0.0,14.2,97,0.00,,SKC,0.00,VWS V14.01,2013-07-14 23:02:00,
2013-07-14 19:06:00,82.4,81.2,29.98,SW,221,0.0,14.2,96,0.00,,SKC,0.00,VWS V14.01,2013-07-14 23:06:00,
2013-07-14 19:07:00,82.4,81.2,29.98,SW,221,0.0,14.2,96,0.00,,SKC,0.00,VWS V14.01,2013-07-14 23:07:00,
2013-07-14 19:11:00,82.3,81.3,29.98,SW,221,0.0,14.2,97,0.00,,SKC,0.00,VWS V14.01,2013-07-14 23:11:00,
2013-07-14 19:12:00,82.4,81.4,29.98,SW,221,0.0,14.2,97,0.00,,SKC,0.00,VWS V14.01,2013-07-14 23:12:00,
2013-07-14 19:16:00,82.4,81.4,29.98,South,179,0.0,14.2,97,0.00,,SKC,0.00,VWS V14.01,2013-07-14 23:16:00,
2013-07-14 19:17:00,82.3,81.3,29.98,SSW,207,6.5,14.2,97,0.00,,SKC,0.00,VWS V14.01,2013-07-14 23:17:00,
2013-07-14 19:21:00,82.2,81.1,29.98,North,359,0.0,14.2,96,0.00,,SKC,0.00,VWS V14.01,2013-07-14 23:21:00,
2013-07-14 19:22:00,82.2,81.1,29.98,North,359,0.0,14.2,96,0.00,,SKC,0.00,VWS V14.01,2013-07-14 23:22:00,
2013-07-14 19:26:00,82.2,81.0,29.98,North,359,2.4,14.2,96,0.00,,SKC,0.00,VWS V14.01,2013-07-14 23:26:00,
2013-07-14 19:27:00,82.2,81.1,29.98,SW,219,2.5,14.2,96,0.00,,SKC,0.00,VWS V14.01,2013-07-14 23:27:00,
2013-07-14 19:28:00,82.1,80.9,29.99,SW,219,0.0,14.2,96,0.00,,SKC,0.00,VWS V14.01,2013-07-14 23:28:00,
2013-07-14 19:32:00,82.4,81.4,29.99,SW,215,0.0,14.2,97,0.00,,SKC,0.00,VWS V14.01,2013-07-14 23:32:00,
2013-07-14 19:33:00,82.4,81.4,29.99,SW,215,0.0,14.2,97,0.00,,SKC,0.00,VWS V14.01,2013-07-14 23:33:00,
2013-07-14 19:37:00,82.4,81.4,29.99,SW,215,0.0,14.2,97,0.00,,SKC,0.00,VWS V14.01,2013-07-14 23:37:00,
2013-07-14 19:38:00,82.4,81.3,29.99,SW,224,0.0,14.2,96,0.00,,SKC,0.00,VWS V14.01,2013-07-14 23:38:00,
2013-07-14 19:42:00,82.4,81.2,29.99,North,359,1.1,14.2,96,0.00,,SKC,0.00,VWS V14.01,2013-07-14 23:42:00,
2013-07-14 19:43:00,82.5,81.3,29.99,SW,225,0.4,14.2,96,0.00,,SKC,0.00,VWS V14.01,2013-07-14 23:43:00,
2013-07-14 19:47:00,82.4,81.4,29.99,North,359,0.0,14.2,97,0.00,,SKC,0.00,VWS V14.01,2013-07-14 23:47:00,
2013-07-14 19:48:00,82.4,81.3,29.99,North,359,0.0,14.2,96,0.00,,SKC,0.00,VWS V14.01,2013-07-14 23:48:00,
2013-07-14 19:52:00,82.1,81.1,29.99,North,359,0.0,14.2,96,0.00,,SKC,0.00,VWS V14.01,2013-07-14 23:52:00,
2013-07-14 19:53:00,82.2,81.1,29.99,North,359,0.0,14.2,96,0.00,,SKC,0.00,VWS V14.01,2013-07-14 23:53:00,
2013-07-14 19:57:00,82.2,81.2,29.99,North,359,0.0,14.2,97,0.00,,SKC,0.00,VWS V14.01,2013-07-14 23:57:00,
2013-07-14 19:58:00,82.1,81.1,29.99,North,359,0.0,14.2,97,0.00,,SKC,0.00,VWS V14.01,2013-07-14 23:58:00,
2013-07-14 20:03:00,82.0,80.8,29.99,North,359,0.0,14.2,96,0.01,,SKC,0.01,VWS V14.01,2013-07-15 00:03:00,
2013-07-14 20:08:00,82.0,80.8,30.00,North,359,0.0,14.2,96,0.01,,SKC,0.01,VWS V14.01,2013-07-15 00:08:00,
2013-07-14 20:09:00,81.9,80.8,30.00,North,359,0.0,14.2,96,0.01,,SKC,0.01,VWS V14.01,2013-07-15 00:09:00,
2013-07-14 20:13:00,81.8,80.8,29.99,North,359,0.0,14.2,97,0.01,,SKC,0.01,VWS V14.01,2013-07-15 00:13:00,
2013-07-14 20:14:00,81.7,80.6,29.99,North,359,0.0,14.2,97,0.01,,SKC,0.01,VWS V14.01,2013-07-15 00:14:00,
2013-07-14 20:18:00,81.7,80.6,29.99,North,359,0.0,14.2,96,0.01,,SKC,0.01,VWS V14.01,2013-07-15 00:18:00,
2013-07-14 20:19:00,81.7,80.6,29.99,North,359,0.0,14.2,96,0.01,,SKC,0.01,VWS V14.01,2013-07-15 00:19:00,
2013-07-14 20:24:00,81.6,80.7,29.99,North,359,0.0,14.2,97,0.01,,SKC,0.01,VWS V14.01,2013-07-15 00:24:00,
2013-07-14 20:29:00,81.5,80.4,29.99,North,359,0.0,14.2,97,0.01,,SKC,0.01,VWS V14.01,2013-07-15 00:29:00,
2013-07-14 20:34:00,81.4,80.2,29.99,North,359,0.0,14.2,96,0.01,,SKC,0.01,VWS V14.01,2013-07-15 00:34:00,
2013-07-14 20:39:00,81.4,80.4,29.99,North,359,0.0,14.2,97,0.01,,SKC,0.01,VWS V14.01,2013-07-15 00:39:00,
2013-07-14 20:40:00,81.4,80.4,29.99,North,359,0.0,14.2,97,0.01,,SKC,0.01,VWS V14.01,2013-07-15 00:40:00,
2013-07-14 20:44:00,81.4,80.4,30.00,North,359,0.0,14.2,97,0.01,,SKC,0.01,VWS V14.01,2013-07-15 00:44:00,
2013-07-14 20:45:00,81.4,80.4,30.00,North,359,0.0,14.2,97,0.01,,SKC,0.01,VWS V14.01,2013-07-15 00:45:00,
2013-07-14 20:49:00,81.2,80.4,30.00,North,359,0.0,14.2,97,0.01,,SKC,0.01,VWS V14.01,2013-07-15 00:49:00,
2013-07-14 20:50:00,81.2,80.3,30.00,North,359,0.0,14.2,97,0.01,,SKC,0.01,VWS V14.01,2013-07-15 00:50:00,
2013-07-14 20:54:00,81.2,80.3,30.00,North,359,0.0,14.2,97,0.01,,SKC,0.01,VWS V14.01,2013-07-15 00:54:00,
2013-07-14 20:55:00,81.2,80.3,30.00,North,359,0.0,14.2,97,0.01,,SKC,0.01,VWS V14.01,2013-07-15 00:55:00,
2013-07-14 20:59:00,81.2,80.3,30.00,North,359,0.0,14.2,97,0.01,,SKC,0.01,VWS V14.01,2013-07-15 00:59:00,
2013-07-14 21:00:00,81.2,80.3,30.00,North,359,0.0,14.2,97,0.01,,SKC,0.01,VWS V14.01,2013-07-15 01:00:00,
2013-07-14 21:04:00,81.0,80.2,29.99,North,359,0.0,14.2,97,0.01,,SKC,0.01,VWS V14.01,2013-07-15 01:04:00,
2013-07-14 21:05:00,81.1,80.3,29.99,North,359,0.0,14.2,97,0.01,,SKC,0.01,VWS V14.01,2013-07-15 01:05:00,
2013-07-14 21:09:00,81.0,80.2,29.99,North,359,0.0,14.2,98,0.01,,SKC,0.01,VWS V14.01,2013-07-15 01:09:00,
2013-07-14 21:10:00,81.0,80.2,29.99,North,359,0.0,14.2,98,0.01,,SKC,0.01,VWS V14.01,2013-07-15 01:10:00,
2013-07-14 21:15:00,80.9,80.2,29.99,North,359,0.0,14.2,98,0.01,,SKC,0.01,VWS V14.01,2013-07-15 01:15:00,
2013-07-14 21:16:00,80.9,80.1,29.99,North,359,0.0,14.2,98,0.01,,SKC,0.01,VWS V14.01,2013-07-15 01:16:00,
2013-07-14 21:20:00,80.9,80.1,29.99,SW,214,0.0,14.2,97,0.01,,SKC,0.01,VWS V14.01,2013-07-15 01:20:00,
2013-07-14 21:22:00,80.9,80.1,29.99,SW,214,0.0,14.2,97,0.01,,SKC,0.01,VWS V14.01,2013-07-15 01:22:00,
2013-07-14 21:25:00,80.9,80.1,29.99,SW,217,1.0,14.2,97,0.01,,SKC,0.01,VWS V14.01,2013-07-15 01:25:00,
2013-07-14 21:26:00,80.9,80.1,29.99,SW,218,0.0,14.2,97,0.01,,SKC,0.01,VWS V14.01,2013-07-15 01:26:00,
2013-07-14 21:27:00,80.8,80.0,29.99,SW,218,0.0,14.2,98,0.01,,SKC,0.01,VWS V14.01,2013-07-15 01:27:00,
2013-07-14 21:30:00,80.8,80.0,29.99,SSW,210,2.5,14.2,98,0.01,,SKC,0.01,VWS V14.01,2013-07-15 01:30:00,
2013-07-14 21:31:00,80.9,80.1,29.99,SSW,195,1.0,14.2,98,0.01,,SKC,0.01,VWS V14.01,2013-07-15 01:31:00,
2013-07-14 21:32:00,80.8,80.1,29.99,SSW,200,0.9,14.2,98,0.01,,SKC,0.01,VWS V14.01,2013-07-15 01:32:00,
2013-07-14 21:35:00,80.7,80.0,30.00,SW,219,0.0,14.2,98,0.01,,SKC,0.01,VWS V14.01,2013-07-15 01:35:00,
2013-07-14 21:36:00,80.7,80.0,30.00,SW,219,0.0,14.2,98,0.01,,SKC,0.01,VWS V14.01,2013-07-15 01:36:00,
2013-07-14 21:37:00,80.8,80.1,30.00,SW,219,0.0,14.2,98,0.01,,SKC,0.01,VWS V14.01,2013-07-15 01:37:00,
2013-07-14 21:41:00,80.7,80.0,30.00,SW,219,0.0,14.2,98,0.01,,SKC,0.01,VWS V14.01,2013-07-15 01:41:00,
2013-07-14 21:42:00,80.8,80.1,30.00,SW,219,0.0,14.2,98,0.01,,SKC,0.01,VWS V14.01,2013-07-15 01:42:00,
2013-07-14 21:46:00,80.7,79.9,30.00,SW,219,0.0,14.2,98,0.01,,SKC,0.01,VWS V14.01,2013-07-15 01:46:00,
2013-07-14 21:47:00,80.7,79.9,30.00,SW,219,0.0,14.2,97,0.01,,SKC,0.01,VWS V14.01,2013-07-15 01:47:00,
2013-07-14 21:51:00,80.8,80.1,30.00,SW,219,0.0,14.2,98,0.01,,SKC,0.01,VWS V14.01,2013-07-15 01:51:00,
2013-07-14 21:52:00,80.8,80.1,30.00,SW,219,0.0,14.2,98,0.01,,SKC,0.01,VWS V14.01,2013-07-15 01:52:00,
2013-07-14 21:56:00,80.8,80.1,30.01,SW,219,0.0,14.2,98,0.01,,SKC,0.01,VWS V14.01,2013-07-15 01:56:00,
2013-07-14 21:57:00,80.8,80.0,30.01,North,359,0.0,14.2,98,0.01,,SKC,0.01,VWS V14.01,2013-07-15 01:57:00,
2013-07-14 22:01:00,80.9,80.2,30.01,North,359,0.0,14.2,98,0.01,,SKC,0.01,VWS V14.01,2013-07-15 02:01:00,
2013-07-14 22:02:00,80.9,80.2,30.01,North,359,0.0,14.2,98,0.01,,SKC,0.01,VWS V14.01,2013-07-15 02:02:00,
2013-07-14 22:06:00,80.8,80.1,30.01,SW,222,9.6,14.2,98,0.01,,SKC,0.01,VWS V14.01,2013-07-15 02:06:00,
2013-07-14 22:07:00,80.8,80.1,30.01,South,174,2.8,14.2,98,0.01,,SKC,0.01,VWS V14.01,2013-07-15 02:07:00,
2013-07-14 22:11:00,80.8,80.1,30.02,SSW,198,2.4,14.2,98,0.01,,SKC,0.01,VWS V14.01,2013-07-15 02:11:00,
2013-07-14 22:12:00,80.8,80.1,30.02,SSW,201,2.4,14.2,98,0.01,,SKC,0.01,VWS V14.01,2013-07-15 02:12:00,
2013-07-14 22:13:00,80.8,80.1,30.02,South,190,2.6,14.2,98,0.01,,SKC,0.01,VWS V14.01,2013-07-15 02:13:00,
2013-07-14 22:16:00,80.8,80.1,30.02,South,176,0.0,14.2,98,0.01,,SKC,0.01,VWS V14.01,2013-07-15 02:16:00,
2013-07-14 22:17:00,80.8,80.1,30.02,South,176,0.0,14.2,98,0.01,,SKC,0.01,VWS V14.01,2013-07-15 02:17:00,
2013-07-14 22:18:00,80.8,80.1,30.02,South,176,0.0,14.2,98,0.01,,SKC,0.01,VWS V14.01,2013-07-15 02:18:00,
2013-07-14 22:21:00,80.7,80.0,30.02,SSW,198,3.4,14.2,98,0.01,,SKC,0.01,VWS V14.01,2013-07-15 02:21:00,
2013-07-14 22:22:00,80.7,80.0,30.02,SW,232,0.0,14.2,98,0.01,,SKC,0.01,VWS V14.01,2013-07-15 02:22:00,
2013-07-14 22:23:00,80.7,80.0,30.02,SSW,207,1.7,14.2,98,0.01,,SKC,0.01,VWS V14.01,2013-07-15 02:23:00,
2013-07-14 22:27:00,80.7,80.0,30.02,SW,232,0.0,14.2,98,0.01,,SKC,0.01,VWS V14.01,2013-07-15 02:27:00,
2013-07-14 22:28:00,80.6,79.8,30.02,South,179,0.7,14.2,98,0.01,,SKC,0.01,VWS V14.01,2013-07-15 02:28:00,
2013-07-14 22:32:00,80.6,79.7,30.02,SW,217,0.0,14.2,97,0.01,,SKC,0.01,VWS V14.01,2013-07-15 02:32:00,
2013-07-14 22:33:00,80.7,79.8,30.02,SW,217,0.0,14.2,97,0.01,,SKC,0.01,VWS V14.01,2013-07-15 02:33:00,
2013-07-14 22:37:00,80.8,79.8,30.02,SW,217,0.0,14.2,97,0.01,,SKC,0.01,VWS V14.01,2013-07-15 02:37:00,
2013-07-14 22:38:00,80.8,79.8,30.02,SW,217,0.0,14.2,97,0.01,,SKC,0.01,VWS V14.01,2013-07-15 02:38:00,
2013-07-14 22:39:00,80.8,79.8,30.02,North,359,6.8,14.2,97,0.01,,SKC,0.01,VWS V14.01,2013-07-15 02:39:00,
2013-07-14 22:43:00,80.9,79.9,30.02,North,359,8.8,14.2,97,0.01,,SKC,0.01,VWS V14.01,2013-07-15 02:43:00,
2013-07-14 22:44:00,80.9,79.9,30.02,SSW,211,2.4,14.2,97,0.01,,SKC,0.01,VWS V14.01,2013-07-15 02:44:00,
2013-07-14 22:48:00,80.8,79.8,30.02,SW,224,0.0,14.2,97,0.01,,SKC,0.01,VWS V14.01,2013-07-15 02:48:00,
2013-07-14 22:49:00,80.8,79.8,30.02,South,173,2.1,14.2,97,0.01,,SKC,0.01,VWS V14.01,2013-07-15 02:49:00,
2013-07-14 22:53:00,80.8,79.8,30.02,SW,219,1.6,14.2,97,0.01,,SKC,0.01,VWS V14.01,2013-07-15 02:53:00,
2013-07-14 22:54:00,80.8,79.8,30.02,SW,217,9.3,14.2,97,0.01,,SKC,0.01,VWS V14.01,2013-07-15 02:54:00,
2013-07-14 22:58:00,80.7,79.8,30.02,SSW,197,3.7,14.2,97,0.01,,SKC,0.01,VWS V14.01,2013-07-15 02:58:00,
2013-07-14 22:59:00,80.8,79.9,30.02,South,183,1.4,14.2,97,0.01,,SKC,0.01,VWS V14.01,2013-07-15 02:59:00,
2013-07-14 23:00:00,80.7,79.8,30.02,SSE,162,0.0,14.2,97,0.01,,SKC,0.01,VWS V14.01,2013-07-15 03:00:00,
2013-07-14 23:03:00,80.8,80.0,30.02,SW,219,0.4,14.2,97,0.01,,SKC,0.01,VWS V14.01,2013-07-15 03:03:00,
2013-07-14 23:04:00,80.7,80.0,30.02,SSE,159,0.0,14.2,97,0.01,,SKC,0.01,VWS V14.01,2013-07-15 03:04:00,
2013-07-14 23:05:00,80.8,80.0,30.03,SSE,159,0.0,14.2,97,0.01,,SKC,0.01,VWS V14.01,2013-07-15 03:05:00,
2013-07-14 23:06:00,80.8,80.2,30.03,SSE,166,2.4,14.2,98,0.01,,SKC,0.01,VWS V14.01,2013-07-15 03:06:00,
2013-07-14 23:07:00,80.9,80.3,30.03,SSW,201,4.5,14.2,98,0.01,,SKC,0.01,VWS V14.01,2013-07-15 03:07:00,
2013-07-14 23:08:00,80.7,80.0,30.02,South,181,3.5,14.2,98,0.01,,SKC,0.01,VWS V14.01,2013-07-15 03:08:00,
2013-07-14 23:09:00,80.8,80.2,30.03,SSW,207,1.9,14.2,98,0.01,,SKC,0.01,VWS V14.01,2013-07-15 03:09:00,
2013-07-14 23:10:00,80.7,80.1,30.03,South,186,3.9,14.2,98,0.01,,SKC,0.01,VWS V14.01,2013-07-15 03:10:00,
2013-07-14 23:13:00,80.6,80.0,30.03,SSW,207,0.0,14.2,98,0.01,,SKC,0.01,VWS V14.01,2013-07-15 03:13:00,
2013-07-14 23:14:00,80.7,80.1,30.03,SSW,207,0.0,14.2,98,0.01,,SKC,0.01,VWS V14.01,2013-07-15 03:14:00,
2013-07-14 23:15:00,80.7,80.1,30.03,SSW,195,2.9,14.2,98,0.01,,SKC,0.01,VWS V14.01,2013-07-15 03:15:00,
2013-07-14 23:18:00,80.7,80.1,30.03,South,186,0.0,14.2,98,0.01,,SKC,0.01,VWS V14.01,2013-07-15 03:18:00,
2013-07-14 23:19:00,80.7,80.0,30.03,South,173,4.8,14.2,98,0.01,,SKC,0.01,VWS V14.01,2013-07-15 03:19:00,
2013-07-14 23:20:00,80.6,80.1,30.03,South,170,0.0,14.2,98,0.01,,SKC,0.01,VWS V14.01,2013-07-15 03:20:00,
2013-07-14 23:23:00,80.6,80.1,30.03,South,170,0.0,14.2,98,0.01,,SKC,0.01,VWS V14.01,2013-07-15 03:23:00,
2013-07-14 23:24:00,80.6,80.1,30.03,South,170,0.0,14.2,98,0.01,,SKC,0.01,VWS V14.01,2013-07-15 03:24:00,
2013-07-14 23:25:00,80.6,80.1,30.04,South,170,0.0,14.2,98,0.01,,SKC,0.01,VWS V14.01,2013-07-15 03:25:00,
2013-07-14 23:28:00,80.6,80.1,30.03,SW,228,0.0,14.2,98,0.01,,SKC,0.01,VWS V14.01,2013-07-15 03:28:00,
2013-07-14 23:29:00,80.6,80.2,30.03,SW,228,0.0,14.2,99,0.01,,SKC,0.01,VWS V14.01,2013-07-15 03:29:00,
2013-07-14 23:30:00,80.7,80.3,30.03,South,190,0.0,14.2,99,0.01,,SKC,0.01,VWS V14.01,2013-07-15 03:30:00,
2013-07-14 23:33:00,80.7,80.1,30.03,North,359,0.0,14.2,98,0.01,,SKC,0.01,VWS V14.01,2013-07-15 03:33:00,
2013-07-14 23:35:00,80.7,80.1,30.03,SW,235,0.0,14.2,98,0.01,,SKC,0.01,VWS V14.01,2013-07-15 03:35:00,
2013-07-14 23:38:00,80.7,80.1,30.03,WSW,239,2.1,14.2,98,0.01,,SKC,0.01,VWS V14.01,2013-07-15 03:38:00,
2013-07-14 23:39:00,80.8,80.2,30.03,WSW,239,0.0,14.2,98,0.01,,SKC,0.01,VWS V14.01,2013-07-15 03:39:00,
2013-07-14 23:40:00,80.7,80.1,30.03,WSW,239,0.0,14.2,98,0.01,,SKC,0.01,VWS V14.01,2013-07-15 03:40:00,
2013-07-14 23:44:00,80.7,80.2,30.03,WSW,239,0.0,14.2,98,0.01,,SKC,0.01,VWS V14.01,2013-07-15 03:44:00,
2013-07-14 23:45:00,80.7,80.2,30.03,North,359,0.2,14.2,98,0.01,,SKC,0.01,VWS V14.01,2013-07-15 03:45:00,
2013-07-14 23:49:00,80.7,80.2,30.03,SW,222,9.5,14.2,98,0.01,,SKC,0.01,VWS V14.01,2013-07-15 03:49:00,
2013-07-14 23:50:00,80.7,80.2,30.03,SW,229,1.7,14.2,98,0.01,,SKC,0.01,VWS V14.01,2013-07-15 03:50:00,
2013-07-14 23:51:00,80.9,80.3,30.03,WSW,238,2.7,14.2,98,0.01,,SKC,0.01,VWS V14.01,2013-07-15 03:51:00,
2013-07-14 23:54:00,80.7,80.1,30.03,SW,214,6.9,14.2,98,0.01,,SKC,0.01,VWS V14.01,2013-07-15 03:54:00,
2013-07-14 23:55:00,80.8,80.2,30.03,SW,229,0.0,14.2,98,0.01,,SKC,0.01,VWS V14.01,2013-07-15 03:55:00,
2013-07-14 23:56:00,80.8,80.2,30.03,SW,229,0.0,14.2,98,0.01,,SKC,0.01,VWS V14.01,2013-07-15 03:56:00,
2013-07-14 23:59:00,80.8,80.2,30.03,SW,229,0.0,14.2,98,0.01,,SKC,0.01,VWS V14.01,2013-07-15 03:59:00,